| time (UTC) | temp C | wind direction | speed KPH | gust KPH | rain 1hr cm | rain 24hr cm | rain mn cm | humidity % | barometer mb |
| 20260505140232 | 23 | 140 | 1.6 | 9.7 | 0.00 | 0.00 | 0.00 | 56 | 1012.9 |
| 20260505140134 | 23 | 232 | 1.6 | 9.7 | 0.00 | 0.00 | 0.00 | 56 | 1012.9 |
| 20260505130227 | 23 | 177 | 0.0 | 1.6 | 0.00 | 0.00 | 0.00 | 56 | 1012.5 |
| 20260505130126 | 23 | 6 | 0.0 | 1.6 | 0.00 | 0.00 | 0.00 | 56 | 1012.5 |
| 20260505125026 | 23 | 134 | 1.6 | 1.6 | 0.00 | 0.00 | 0.00 | 56 | 1012.6 |
| 20260505124926 | 23 | 190 | 0.0 | 1.6 | 0.00 | 0.00 | 0.00 | 56 | 1012.6 |
| 20260505124827 | 23 | 0 | 1.6 | 1.6 | 0.00 | 0.00 | 0.00 | 56 | 1012.6 |
| 20260505124712 | 23 | 179 | 1.6 | 3.2 | 0.00 | 0.00 | 0.00 | 56 | 1012.6 |
| 20260505124513 | 23 | 162 | 1.6 | 3.2 | 0.00 | 0.00 | 0.00 | 56 | 1012.7 |
| 20260505124412 | 23 | 107 | 1.6 | 3.2 | 0.00 | 0.00 | 0.00 | 56 | 1012.7 |
| 20260505124314 | 23 | 176 | 1.6 | 3.2 | 0.00 | 0.00 | 0.00 | 56 | 1012.7 |
| 20260505124213 | 23 | 197 | 0.0 | 3.2 | 0.00 | 0.00 | 0.00 | 56 | 1012.7 |
| 20260505124013 | 23 | 0 | 1.6 | 3.2 | 0.00 | 0.00 | 0.00 | 56 | 1012.7 |
| 20260505123914 | 23 | 106 | 1.6 | 3.2 | 0.00 | 0.00 | 0.00 | 56 | 1012.7 |
| 20260505123813 | 23 | 189 | 1.6 | 3.2 | 0.00 | 0.00 | 0.00 | 56 | 1012.6 |
| 20260505123712 | 23 | 194 | 1.6 | 1.6 | 0.00 | 0.00 | 0.00 | 56 | 1012.7 |
| 20260505123513 | 23 | 185 | 1.6 | 1.6 | 0.00 | 0.00 | 0.00 | 56 | 1012.6 |
| 20260505123414 | 23 | 153 | 1.6 | 1.6 | 0.00 | 0.00 | 0.00 | 56 | 1012.6 |
| 20260505123313 | 23 | 0 | 1.6 | 1.6 | 0.00 | 0.00 | 0.00 | 56 | 1012.6 |
| 20260505123213 | 23 | 171 | 1.6 | 1.6 | 0.00 | 0.00 | 0.00 | 56 | 1012.5 |
| 20260505123013 | 23 | 187 | 1.6 | 1.6 | 0.00 | 0.00 | 0.00 | 56 | 1012.5 |
| 20260505122929 | 23 | 315 | 0.0 | 1.6 | 0.00 | 0.00 | 0.00 | 56 | 1012.5 |
| 20260505122813 | 23 | 189 | 0.0 | 1.6 | 0.00 | 0.00 | 0.00 | 56 | 1012.5 |
| 20260505122718 | 23 | 60 | 0.0 | 1.6 | 0.00 | 0.00 | 0.00 | 56 | 1012.5 |
| 20260505122513 | 23 | 158 | 0.0 | 1.6 | 0.00 | 0.00 | 0.00 | 56 | 1012.5 |
| 20260505122443 | 23 | 112 | 0.0 | 1.6 | 0.00 | 0.00 | 0.00 | 56 | 1012.5 |
| 20260505122313 | 23 | 171 | 0.0 | 1.6 | 0.00 | 0.00 | 0.00 | 56 | 1012.5 |
| 20260505122225 | 23 | 87 | 0.0 | 1.6 | 0.00 | 0.00 | 0.00 | 57 | 1012.4 |
| 20260505122218 | 23 | 85 | 0.0 | 1.6 | 0.00 | 0.00 | 0.00 | 56 | 1012.4 |
| 20260505122013 | 23 | 0 | 0.0 | 1.6 | 0.00 | 0.00 | 0.00 | 56 | 1012.5 |
| 20260505121914 | 23 | 0 | 0.0 | 3.2 | 0.00 | 0.00 | 0.00 | 57 | 1012.4 |
| 20260505121813 | 23 | 0 | 0.0 | 3.2 | 0.00 | 0.00 | 0.00 | 56 | 1012.4 |
| 20260505121713 | 23 | 87 | 0.0 | 3.2 | 0.00 | 0.00 | 0.00 | 56 | 1012.4 |
| 20260505121512 | 23 | 189 | 1.6 | 3.2 | 0.00 | 0.00 | 0.00 | 56 | 1012.4 |
| 20260505121412 | 23 | 142 | 1.6 | 3.2 | 0.00 | 0.00 | 0.00 | 56 | 1012.4 |
| 20260505121312 | 23 | 155 | 1.6 | 3.2 | 0.00 | 0.00 | 0.00 | 56 | 1012.4 |
| 20260505121212 | 23 | 105 | 1.6 | 3.2 | 0.00 | 0.00 | 0.00 | 56 | 1012.4 |
| 20260505121012 | 23 | 92 | 0.0 | 3.2 | 0.00 | 0.00 | 0.00 | 56 | 1012.3 |
| 20260505120911 | 23 | 126 | 0.0 | 1.6 | 0.00 | 0.00 | 0.00 | 56 | 1012.3 |
| 20260505120812 | 23 | 0 | 0.0 | 1.6 | 0.00 | 0.00 | 0.00 | 56 | 1012.3 |
| 20260505120724 | 23 | 58 | 0.0 | 1.6 | 0.00 | 0.00 | 0.00 | 56 | 1012.3 |
| 20260505120717 | 23 | 13 | 0.0 | 1.6 | 0.00 | 0.00 | 0.00 | 56 | 1012.2 |
| 20260505120512 | 23 | 58 | 0.0 | 1.6 | 0.00 | 0.00 | 0.00 | 56 | 1012.3 |
| 20260505120412 | 23 | 66 | 0.0 | 1.6 | 0.00 | 0.00 | 0.00 | 56 | 1012.3 |
| 20260505120312 | 23 | 0 | 0.0 | 1.6 | 0.00 | 0.00 | 0.00 | 56 | 1012.3 |
| 20260505120213 | 23 | 12 | 0.0 | 1.6 | 0.00 | 0.00 | 0.00 | 56 | 1012.2 |
| 20260505120012 | 23 | 326 | 0.0 | 1.6 | 0.00 | 0.00 | 0.00 | 56 | 1012.2 |
| 20260505115911 | 23 | 148 | 0.0 | 1.6 | 0.00 | 0.00 | 0.00 | 56 | 1012.2 |
| 20260505115812 | 23 | 352 | 0.0 | 1.6 | 0.00 | 0.00 | 0.00 | 56 | 1012.3 |
| 20260505115712 | 23 | 151 | 0.0 | 1.6 | 0.00 | 0.00 | 0.00 | 56 | 1012.2 |
| 20260505115512 | 23 | 166 | 0.0 | 3.2 | 0.00 | 0.00 | 0.00 | 56 | 1012.2 |
| 20260505115411 | 23 | 0 | 0.0 | 3.2 | 0.00 | 0.00 | 0.00 | 56 | 1012.2 |
| 20260505115312 | 23 | 191 | 0.0 | 3.2 | 0.00 | 0.00 | 0.00 | 56 | 1012.2 |
| 20260505115200 | 23 | 105 | 0.0 | 3.2 | 0.00 | 0.00 | 0.00 | 56 | 1012.2 |
| 20260505115059 | 23 | 0 | 0.0 | 3.2 | 0.00 | 0.00 | 0.00 | 56 | 1012.2 |
| 20260505114958 | 23 | 0 | 0.0 | 3.2 | 0.00 | 0.00 | 0.00 | 56 | 1012.2 |
| 20260505114942 | 23 | 79 | 0.0 | 3.2 | 0.00 | 0.00 | 0.00 | 56 | 1012.2 |
| 20260505114758 | 23 | 307 | 0.0 | 3.2 | 0.00 | 0.00 | 0.00 | 56 | 1012.2 |
| 20260505114717 | 23 | 8 | 0.0 | 3.2 | 0.00 | 0.00 | 0.00 | 56 | 1012.2 |
| 20260505114543 | 23 | 0 | 0.0 | 1.6 | 0.00 | 0.00 | 0.00 | 56 | 1012.2 |
| 20260505114429 | 23 | 92 | 0.0 | 1.6 | 0.00 | 0.00 | 0.00 | 56 | 1012.2 |
| 20260505114327 | 23 | 97 | 0.0 | 1.6 | 0.00 | 0.00 | 0.00 | 56 | 1012.3 |
| 20260505114228 | 23 | 0 | 0.0 | 0.0 | 0.00 | 0.00 | 0.00 | 56 | 1012.2 |
| 20260505114203 | 23 | 0 | 0.0 | 0.0 | 0.00 | 0.00 | 0.00 | 56 | 1012.3 |
| 20260505114014 | 23 | 0 | 0.0 | 0.0 | 0.00 | 0.00 | 0.00 | 56 | 1012.3 |
| 20260505113913 | 23 | 0 | 0.0 | 0.0 | 0.00 | 0.00 | 0.00 | 56 | 1012.2 |
| 20260505113814 | 23 | 0 | 0.0 | 0.0 | 0.00 | 0.00 | 0.00 | 56 | 1012.2 |
| 20260505113713 | 23 | 0 | 0.0 | 0.0 | 0.00 | 0.00 | 0.00 | 56 | 1012.2 |
| 20260505113614 | 23 | 0 | 0.0 | 0.0 | 0.00 | 0.00 | 0.00 | 56 | 1012.2 |
| 20260505113513 | 23 | 0 | 0.0 | 0.0 | 0.00 | 0.00 | 0.00 | 56 | 1012.2 |
| 20260505113414 | 23 | 0 | 0.0 | 1.6 | 0.00 | 0.00 | 0.00 | 56 | 1012.1 |
| 20260505113314 | 23 | 0 | 0.0 | 1.6 | 0.00 | 0.00 | 0.00 | 56 | 1012.1 |
| 20260505113214 | 23 | 0 | 0.0 | 1.6 | 0.00 | 0.00 | 0.00 | 56 | 1012.2 |
| 20260505113113 | 23 | 0 | 0.0 | 1.6 | 0.00 | 0.00 | 0.00 | 56 | 1012.2 |
| 20260505113014 | 23 | 0 | 0.0 | 1.6 | 0.00 | 0.00 | 0.00 | 56 | 1012.2 |
| 20260505112913 | 23 | 147 | 0.0 | 3.2 | 0.00 | 0.00 | 0.00 | 56 | 1012.2 |
| 20260505112814 | 23 | 0 | 0.0 | 3.2 | 0.00 | 0.00 | 0.00 | 56 | 1012.2 |
| 20260505112714 | 23 | 0 | 0.0 | 3.2 | 0.00 | 0.00 | 0.00 | 56 | 1012.2 |
| 20260505112705 | 23 | 0 | 0.0 | 3.2 | 0.00 | 0.00 | 0.00 | 56 | 1012.2 |
| 20260505112514 | 23 | 234 | 0.0 | 3.2 | 0.00 | 0.00 | 0.00 | 56 | 1012.2 |
| 20260505112413 | 23 | 0 | 0.0 | 3.2 | 0.00 | 0.00 | 0.00 | 56 | 1012.2 |
| 20260505112314 | 23 | 0 | 1.6 | 3.2 | 0.00 | 0.00 | 0.00 | 56 | 1012.2 |
| 20260505112213 | 23 | 21 | 1.6 | 3.2 | 0.00 | 0.00 | 0.00 | 56 | 1012.2 |
| 20260505112114 | 23 | 87 | 1.6 | 3.2 | 0.00 | 0.00 | 0.00 | 56 | 1012.2 |
| 20260505112014 | 23 | 36 | 1.6 | 3.2 | 0.00 | 0.00 | 0.00 | 56 | 1012.1 |
| 20260505111914 | 23 | 13 | 1.6 | 1.6 | 0.00 | 0.00 | 0.00 | 56 | 1012.2 |
| 20260505111814 | 23 | 182 | 0.0 | 1.6 | 0.00 | 0.00 | 0.00 | 56 | 1012.2 |
| 20260505111714 | 23 | 81 | 0.0 | 1.6 | 0.00 | 0.00 | 0.00 | 56 | 1012.2 |
| 20260505111615 | 23 | 97 | 0.0 | 3.2 | 0.00 | 0.00 | 0.00 | 56 | 1012.1 |
| 20260505111515 | 23 | 78 | 0.0 | 3.2 | 0.00 | 0.00 | 0.00 | 56 | 1012.1 |
| 20260505111414 | 23 | 50 | 1.6 | 3.2 | 0.00 | 0.00 | 0.00 | 56 | 1012.2 |
| 20260505111315 | 23 | 32 | 1.6 | 3.2 | 0.00 | 0.00 | 0.00 | 56 | 1012.2 |
| 20260505111214 | 23 | 0 | 0.0 | 3.2 | 0.00 | 0.00 | 0.00 | 56 | 1012.2 |
| 20260505111115 | 23 | 0 | 0.0 | 3.2 | 0.00 | 0.00 | 0.00 | 56 | 1012.3 |
| 20260505111015 | 23 | 24 | 0.0 | 3.2 | 0.00 | 0.00 | 0.00 | 56 | 1012.2 |
| 20260505110912 | 23 | 0 | 0.0 | 3.2 | 0.00 | 0.00 | 0.00 | 56 | 1012.3 |
| 20260505110813 | 23 | 74 | 0.0 | 3.2 | 0.00 | 0.00 | 0.00 | 56 | 1012.2 |
| 20260505110713 | 23 | 74 | 0.0 | 3.2 | 0.00 | 0.00 | 0.00 | 56 | 1012.2 |
| 20260505110705 | 23 | 70 | 0.0 | 1.6 | 0.00 | 0.00 | 0.00 | 56 | 1012.2 |
| 20260505110500 | 23 | 42 | 0.0 | 1.6 | 0.00 | 0.00 | 0.00 | 56 | 1012.2 |
| 20260505110400 | 23 | 26 | 0.0 | 1.6 | 0.00 | 0.00 | 0.00 | 56 | 1012.2 |
| 20260505110259 | 23 | 21 | 0.0 | 1.6 | 0.00 | 0.00 | 0.00 | 56 | 1012.2 |
| 20260505110159 | 23 | 0 | 0.0 | 1.6 | 0.00 | 0.00 | 0.00 | 56 | 1012.2 |
| 20260505110104 | 23 | 0 | 0.0 | 1.6 | 0.00 | 0.00 | 0.00 | 56 | 1012.2 |
| 20260505102144 | 23 | 0 | 0.0 | 0.0 | 0.00 | 0.00 | 0.00 | 56 | 1012.1 |
| 20260505102134 | 23 | 0 | 0.0 | 0.0 | 0.00 | 0.00 | 0.00 | 56 | 1012.1 |
| 20260505101945 | 23 | 0 | 0.0 | 0.0 | 0.00 | 0.00 | 0.00 | 56 | 1012.1 |
| 20260505101845 | 23 | 0 | 0.0 | 0.0 | 0.00 | 0.00 | 0.00 | 56 | 1012.1 |
| 20260505101746 | 23 | 0 | 0.0 | 0.0 | 0.00 | 0.00 | 0.00 | 56 | 1012.1 |
| 20260505101645 | 23 | 0 | 0.0 | 0.0 | 0.00 | 0.00 | 0.00 | 56 | 1012.1 |
| 20260505101545 | 23 | 0 | 0.0 | 0.0 | 0.00 | 0.00 | 0.00 | 56 | 1012.1 |
| 20260505101445 | 23 | 165 | 0.0 | 0.0 | 0.00 | 0.00 | 0.00 | 56 | 1012.2 |
| 20260505101345 | 23 | 0 | 0.0 | 0.0 | 0.00 | 0.00 | 0.00 | 56 | 1012.2 |
| 20260505101245 | 23 | 0 | 0.0 | 1.6 | 0.00 | 0.00 | 0.00 | 56 | 1012.2 |
| 20260505101145 | 23 | 0 | 0.0 | 1.6 | 0.00 | 0.00 | 0.00 | 56 | 1012.2 |
| 20260505101045 | 23 | 0 | 0.0 | 1.6 | 0.00 | 0.00 | 0.00 | 56 | 1012.3 |
| 20260505100945 | 23 | 0 | 0.0 | 1.6 | 0.00 | 0.00 | 0.00 | 56 | 1012.3 |
| 20260505100845 | 23 | 0 | 0.0 | 1.6 | 0.00 | 0.00 | 0.00 | 56 | 1012.3 |
| 20260505100745 | 23 | 0 | 0.0 | 1.6 | 0.00 | 0.00 | 0.00 | 56 | 1012.3 |
| 20260505100645 | 23 | 0 | 0.0 | 1.6 | 0.00 | 0.00 | 0.00 | 56 | 1012.2 |
| 20260505100635 | 23 | 0 | 0.0 | 1.6 | 0.00 | 0.00 | 0.00 | 56 | 1012.3 |
| 20260505100445 | 23 | 0 | 0.0 | 1.6 | 0.00 | 0.00 | 0.00 | 56 | 1012.2 |
| 20260505100346 | 23 | 88 | 0.0 | 1.6 | 0.00 | 0.00 | 0.00 | 56 | 1012.2 |
| 20260505100245 | 23 | 0 | 0.0 | 0.0 | 0.00 | 0.00 | 0.00 | 56 | 1012.2 |
| 20260505100145 | 23 | 0 | 0.0 | 0.0 | 0.00 | 0.00 | 0.00 | 56 | 1012.2 |
| 20260505100134 | 23 | 0 | 0.0 | 0.0 | 0.00 | 0.00 | 0.00 | 56 | 1012.2 |
| 20260505095945 | 23 | 0 | 0.0 | 0.0 | 0.00 | 0.00 | 0.00 | 56 | 1012.2 |
| 20260505095846 | 23 | 0 | 0.0 | 0.0 | 0.00 | 0.00 | 0.00 | 56 | 1012.2 |
| 20260505095745 | 23 | 0 | 0.0 | 0.0 | 0.00 | 0.00 | 0.00 | 56 | 1012.2 |
| 20260505095645 | 23 | 0 | 0.0 | 0.0 | 0.00 | 0.00 | 0.00 | 56 | 1012.3 |
| 20260505095545 | 23 | 0 | 0.0 | 0.0 | 0.00 | 0.00 | 0.00 | 56 | 1012.3 |
| 20260505095445 | 23 | 0 | 0.0 | 0.0 | 0.00 | 0.00 | 0.00 | 56 | 1012.2 |
| 20260505095345 | 23 | 0 | 0.0 | 1.6 | 0.00 | 0.00 | 0.00 | 56 | 1012.2 |
| 20260505095245 | 23 | 126 | 0.0 | 1.6 | 0.00 | 0.00 | 0.00 | 56 | 1012.2 |
| 20260505095145 | 23 | 0 | 0.0 | 1.6 | 0.00 | 0.00 | 0.00 | 56 | 1012.2 |
| 20260505095046 | 23 | 0 | 0.0 | 1.6 | 0.00 | 0.00 | 0.00 | 56 | 1012.3 |
| 20260505094946 | 23 | 0 | 0.0 | 1.6 | 0.00 | 0.00 | 0.00 | 56 | 1012.2 |
| 20260505094846 | 23 | 0 | 0.0 | 1.6 | 0.00 | 0.00 | 0.00 | 56 | 1012.3 |
| 20260505094745 | 23 | 0 | 0.0 | 1.6 | 0.00 | 0.00 | 0.00 | 56 | 1012.3 |
| 20260505094645 | 23 | 0 | 0.0 | 1.6 | 0.00 | 0.00 | 0.00 | 56 | 1012.3 |
| 20260505094636 | 23 | 0 | 0.0 | 1.6 | 0.00 | 0.00 | 0.00 | 56 | 1012.4 |
| 20260505094445 | 23 | 0 | 0.0 | 1.6 | 0.00 | 0.00 | 0.00 | 56 | 1012.4 |
| 20260505094345 | 23 | 29 | 0.0 | 1.6 | 0.00 | 0.00 | 0.00 | 56 | 1012.5 |
| 20260505094245 | 23 | 0 | 0.0 | 0.0 | 0.00 | 0.00 | 0.00 | 56 | 1012.5 |
| 20260505094145 | 23 | 0 | 0.0 | 0.0 | 0.00 | 0.00 | 0.00 | 56 | 1012.4 |
| 20260505094045 | 23 | 0 | 0.0 | 0.0 | 0.00 | 0.00 | 0.00 | 56 | 1012.5 |
| 20260505093945 | 23 | 0 | 0.0 | 0.0 | 0.00 | 0.00 | 0.00 | 56 | 1012.5 |
| 20260505093846 | 23 | 0 | 0.0 | 0.0 | 0.00 | 0.00 | 0.00 | 56 | 1012.5 |
| 20260505093745 | 23 | 0 | 0.0 | 0.0 | 0.00 | 0.00 | 0.00 | 56 | 1012.4 |
| 20260505093645 | 23 | 0 | 0.0 | 0.0 | 0.00 | 0.00 | 0.00 | 56 | 1012.3 |
| 20260505093445 | 23 | 0 | 0.0 | 0.0 | 0.00 | 0.00 | 0.00 | 56 | 1012.3 |
| 20260505093346 | 23 | 0 | 0.0 | 0.0 | 0.00 | 0.00 | 0.00 | 56 | 1012.3 |
| 20260505093245 | 23 | 0 | 0.0 | 0.0 | 0.00 | 0.00 | 0.00 | 56 | 1012.2 |
| 20260505093146 | 23 | 0 | 0.0 | 0.0 | 0.00 | 0.00 | 0.00 | 56 | 1012.3 |
| 20260505093045 | 23 | 0 | 0.0 | 0.0 | 0.00 | 0.00 | 0.00 | 56 | 1012.2 |
| 20260505092946 | 23 | 0 | 0.0 | 0.0 | 0.00 | 0.00 | 0.00 | 56 | 1012.3 |
| 20260505092845 | 23 | 0 | 0.0 | 0.0 | 0.00 | 0.00 | 0.00 | 56 | 1012.3 |
| 20260505092746 | 23 | 0 | 0.0 | 0.0 | 0.00 | 0.00 | 0.00 | 56 | 1012.4 |
| 20260505092646 | 23 | 0 | 0.0 | 0.0 | 0.00 | 0.00 | 0.00 | 56 | 1012.3 |
| 20260505092546 | 23 | 0 | 0.0 | 0.0 | 0.00 | 0.00 | 0.00 | 56 | 1012.4 |
| 20260505092445 | 23 | 0 | 0.0 | 0.0 | 0.00 | 0.00 | 0.00 | 56 | 1012.3 |
| 20260505092331 | 23 | 0 | 0.0 | 0.0 | 0.00 | 0.00 | 0.00 | 56 | 1012.3 |
| 20260505092231 | 23 | 0 | 0.0 | 0.0 | 0.00 | 0.00 | 0.00 | 56 | 1012.3 |
| 20260505092131 | 23 | 0 | 0.0 | 0.0 | 0.00 | 0.00 | 0.00 | 56 | 1012.3 |
| 20260505092030 | 23 | 0 | 0.0 | 0.0 | 0.00 | 0.00 | 0.00 | 56 | 1012.3 |
| 20260505091931 | 23 | 0 | 0.0 | 0.0 | 0.00 | 0.00 | 0.00 | 56 | 1012.3 |
| 20260505091830 | 23 | 0 | 0.0 | 0.0 | 0.00 | 0.00 | 0.00 | 56 | 1012.4 |
| 20260505091731 | 23 | 0 | 0.0 | 0.0 | 0.00 | 0.00 | 0.00 | 56 | 1012.3 |
| 20260505091630 | 23 | 0 | 0.0 | 0.0 | 0.00 | 0.00 | 0.00 | 56 | 1012.3 |
| 20260505091531 | 23 | 0 | 0.0 | 0.0 | 0.00 | 0.00 | 0.00 | 56 | 1012.3 |
| 20260505091430 | 23 | 0 | 0.0 | 0.0 | 0.00 | 0.00 | 0.00 | 56 | 1012.3 |
| 20260505091331 | 23 | 0 | 0.0 | 0.0 | 0.00 | 0.00 | 0.00 | 56 | 1012.2 |
| 20260505091315 | 23 | 0 | 0.0 | 0.0 | 0.00 | 0.00 | 0.00 | 56 | 1012.3 |
| 20260505091311 | 23 | 0 | 0.0 | 0.0 | 0.00 | 0.00 | 0.00 | 56 | 1012.3 |
| 20260505091304 | 23 | 0 | 0.0 | 0.0 | 0.00 | 0.00 | 0.00 | 56 | 1012.2 |
| 20260505091257 | 23 | 0 | 0.0 | 0.0 | 0.00 | 0.00 | 0.00 | 56 | 1012.3 |
| 20260505091246 | 23 | 0 | 0.0 | 0.0 | 0.00 | 0.00 | 0.00 | 56 | 1012.3 |
| 20260505091238 | 23 | 0 | 0.0 | 0.0 | 0.00 | 0.00 | 0.00 | 56 | 1012.3 |
| 20260505091231 | 23 | 0 | 0.0 | 0.0 | 0.00 | 0.00 | 0.00 | 56 | 1012.3 |
| 20260505091225 | 23 | 0 | 0.0 | 0.0 | 0.00 | 0.00 | 0.00 | 56 | 1012.3 |
| 20260505091217 | 23 | 0 | 0.0 | 0.0 | 0.00 | 0.00 | 0.00 | 56 | 1012.2 |
| 20260505091104 | 23 | 0 | 0.0 | 0.0 | 0.00 | 0.00 | 0.00 | 56 | 1012.2 |
| 20260505091057 | 23 | 276 | 0.0 | 0.0 | 0.00 | 0.00 | 0.00 | 56 | 1012.2 |
| 20260505091051 | 23 | 0 | 0.0 | 0.0 | 0.00 | 0.00 | 0.00 | 56 | 1012.1 |
| 20260505091044 | 23 | 0 | 0.0 | 0.0 | 0.00 | 0.00 | 0.00 | 56 | 1012.1 |
| 20260505091025 | 23 | 0 | 0.0 | 0.0 | 0.00 | 0.00 | 0.00 | 56 | 1012.1 |
| 20260505091019 | 23 | 0 | 0.0 | 0.0 | 0.00 | 0.00 | 0.00 | 56 | 1012.2 |
| 20260505091011 | 23 | 0 | 0.0 | 0.0 | 0.00 | 0.00 | 0.00 | 56 | 1012.2 |
| 20260505091004 | 23 | 0 | 0.0 | 0.0 | 0.00 | 0.00 | 0.00 | 56 | 1012.2 |
| 20260505090957 | 23 | 0 | 0.0 | 0.0 | 0.00 | 0.00 | 0.00 | 56 | 1012.3 |
| 20260505090944 | 23 | 0 | 0.0 | 0.0 | 0.00 | 0.00 | 0.00 | 56 | 1012.3 |
| 20260505085330 | 23 | 0 | 0.0 | 0.0 | 0.00 | 0.00 | 0.00 | 56 | 1012.3 |
| 20260505085231 | 23 | 0 | 0.0 | 0.0 | 0.00 | 0.00 | 0.00 | 56 | 1012.4 |
| 20260505085130 | 23 | 0 | 0.0 | 0.0 | 0.00 | 0.00 | 0.00 | 56 | 1012.3 |
| 20260505085119 | 23 | 0 | 0.0 | 0.0 | 0.00 | 0.00 | 0.00 | 56 | 1012.4 |
| 20260505084930 | 23 | 0 | 0.0 | 0.0 | 0.00 | 0.00 | 0.00 | 56 | 1012.4 |
| 20260505084832 | 23 | 0 | 0.0 | 0.0 | 0.00 | 0.00 | 0.00 | 56 | 1012.3 |
| 20260505084731 | 23 | 0 | 0.0 | 0.0 | 0.00 | 0.00 | 0.00 | 56 | 1012.3 |
| 20260505084631 | 23 | 0 | 0.0 | 0.0 | 0.00 | 0.00 | 0.00 | 56 | 1012.3 |
| 20260505084622 | 23 | 0 | 0.0 | 0.0 | 0.00 | 0.00 | 0.00 | 56 | 1012.4 |
| 20260505084430 | 23 | 0 | 0.0 | 0.0 | 0.00 | 0.00 | 0.00 | 56 | 1012.4 |
| 20260505084331 | 23 | 0 | 0.0 | 0.0 | 0.00 | 0.00 | 0.00 | 56 | 1012.4 |
| 20260505084231 | 23 | 0 | 0.0 | 0.0 | 0.00 | 0.00 | 0.00 | 56 | 1012.4 |
| 20260505084131 | 23 | 0 | 0.0 | 0.0 | 0.00 | 0.00 | 0.00 | 56 | 1012.5 |
| 20260505084031 | 23 | 0 | 0.0 | 0.0 | 0.00 | 0.00 | 0.00 | 56 | 1012.5 |
| 20260505083931 | 23 | 0 | 0.0 | 0.0 | 0.00 | 0.00 | 0.00 | 56 | 1012.5 |
| 20260505083832 | 23 | 0 | 0.0 | 0.0 | 0.00 | 0.00 | 0.00 | 56 | 1012.6 |
| 20260505083732 | 23 | 0 | 0.0 | 0.0 | 0.00 | 0.00 | 0.00 | 56 | 1012.5 |
| 20260505083631 | 23 | 0 | 0.0 | 0.0 | 0.00 | 0.00 | 0.00 | 56 | 1012.5 |
| 20260505083621 | 23 | 0 | 0.0 | 0.0 | 0.00 | 0.00 | 0.00 | 56 | 1012.5 |
| 20260505083431 | 23 | 0 | 0.0 | 0.0 | 0.00 | 0.00 | 0.00 | 56 | 1012.5 |
| 20260505083332 | 23 | 0 | 0.0 | 0.0 | 0.00 | 0.00 | 0.00 | 56 | 1012.5 |
| 20260505083231 | 23 | 0 | 0.0 | 0.0 | 0.00 | 0.00 | 0.00 | 56 | 1012.5 |
| 20260505083132 | 23 | 0 | 0.0 | 0.0 | 0.00 | 0.00 | 0.00 | 56 | 1012.5 |
| 20260505083031 | 23 | 0 | 0.0 | 0.0 | 0.00 | 0.00 | 0.00 | 56 | 1012.4 |
| 20260505082931 | 23 | 0 | 0.0 | 0.0 | 0.00 | 0.00 | 0.00 | 56 | 1012.4 |
| 20260505082831 | 23 | 0 | 0.0 | 0.0 | 0.00 | 0.00 | 0.00 | 56 | 1012.4 |
| 20260505082731 | 23 | 0 | 0.0 | 0.0 | 0.00 | 0.00 | 0.00 | 56 | 1012.3 |
| 20260505082633 | 23 | 0 | 0.0 | 0.0 | 0.00 | 0.00 | 0.00 | 56 | 1012.3 |
| 20260505082625 | 23 | 0 | 0.0 | 0.0 | 0.00 | 0.00 | 0.00 | 56 | 1012.3 |
| 20260505082431 | 23 | 0 | 0.0 | 0.0 | 0.00 | 0.00 | 0.00 | 56 | 1012.3 |
| 20260505082331 | 23 | 0 | 0.0 | 0.0 | 0.00 | 0.00 | 0.00 | 56 | 1012.3 |
| 20260505082232 | 23 | 0 | 0.0 | 0.0 | 0.00 | 0.00 | 0.00 | 56 | 1012.4 |
| 20260505082131 | 23 | 0 | 0.0 | 0.0 | 0.00 | 0.00 | 0.00 | 56 | 1012.3 |
| 20260505082120 | 23 | 0 | 0.0 | 0.0 | 0.00 | 0.00 | 0.00 | 56 | 1012.2 |
| 20260505081931 | 23 | 0 | 0.0 | 0.0 | 0.00 | 0.00 | 0.00 | 56 | 1012.2 |
| 20260505081831 | 23 | 0 | 0.0 | 0.0 | 0.00 | 0.00 | 0.00 | 56 | 1012.2 |
| 20260505081731 | 23 | 0 | 0.0 | 0.0 | 0.00 | 0.00 | 0.00 | 56 | 1012.2 |
| 20260505081631 | 23 | 0 | 0.0 | 0.0 | 0.00 | 0.00 | 0.00 | 56 | 1012.2 |
| 20260505081531 | 23 | 0 | 0.0 | 1.6 | 0.00 | 0.00 | 0.00 | 56 | 1012.3 |
| 20260505081417 | 23 | 0 | 0.0 | 1.6 | 0.00 | 0.00 | 0.00 | 56 | 1012.2 |
| 20260505081316 | 23 | 0 | 0.0 | 1.6 | 0.00 | 0.00 | 0.00 | 56 | 1012.2 |
| 20260505081217 | 23 | 0 | 0.0 | 1.6 | 0.00 | 0.00 | 0.00 | 55 | 1012.1 |
| 20260505081117 | 23 | 0 | 0.0 | 1.6 | 0.00 | 0.00 | 0.00 | 55 | 1012.2 |
| 20260505081017 | 23 | 0 | 0.0 | 1.6 | 0.00 | 0.00 | 0.00 | 55 | 1012.2 |
| 20260505080917 | 23 | 0 | 0.0 | 1.6 | 0.00 | 0.00 | 0.00 | 56 | 1012.2 |
| 20260505080817 | 23 | 0 | 0.0 | 1.6 | 0.00 | 0.00 | 0.00 | 56 | 1012.2 |
| 20260505080717 | 23 | 0 | 0.0 | 1.6 | 0.00 | 0.00 | 0.00 | 56 | 1012.2 |
| 20260505080617 | 23 | 11 | 0.0 | 1.6 | 0.00 | 0.00 | 0.00 | 56 | 1012.2 |
| 20260505080517 | 23 | 102 | 0.0 | 1.6 | 0.00 | 0.00 | 0.00 | 56 | 1012.2 |
| 20260505080416 | 23 | 103 | 0.0 | 1.6 | 0.00 | 0.00 | 0.00 | 55 | 1012.2 |
| 20260505080317 | 23 | 0 | 0.0 | 0.0 | 0.00 | 0.00 | 0.00 | 55 | 1012.2 |
| 20260505080217 | 23 | 0 | 0.0 | 1.6 | 0.00 | 0.00 | 0.00 | 56 | 1012.2 |
| 20260505080116 | 23 | 0 | 0.0 | 1.6 | 0.00 | 0.00 | 0.00 | 55 | 1012.2 |
| 20260505080017 | 23 | 0 | 0.0 | 1.6 | 0.00 | 0.00 | 0.00 | 55 | 1012.2 |
| 20260505075917 | 23 | 0 | 0.0 | 1.6 | 0.00 | 0.00 | 0.00 | 56 | 1012.2 |
| 20260505075817 | 23 | 0 | 0.0 | 1.6 | 0.00 | 0.00 | 0.00 | 56 | 1012.2 |
| 20260505075717 | 23 | 229 | 0.0 | 1.6 | 0.00 | 0.00 | 0.00 | 55 | 1012.3 |
| 20260505075617 | 23 | 0 | 0.0 | 1.6 | 0.00 | 0.00 | 0.00 | 55 | 1012.3 |
| 20260505075516 | 23 | 0 | 0.0 | 1.6 | 0.00 | 0.00 | 0.00 | 55 | 1012.3 |
| 20260505075416 | 23 | 0 | 0.0 | 1.6 | 0.00 | 0.00 | 0.00 | 55 | 1012.3 |
| 20260505075317 | 23 | 84 | 0.0 | 1.6 | 0.00 | 0.00 | 0.00 | 55 | 1012.2 |
| 20260505075218 | 23 | 93 | 0.0 | 1.6 | 0.00 | 0.00 | 0.00 | 55 | 1012.2 |
| 20260505075117 | 23 | 0 | 0.0 | 0.0 | 0.00 | 0.00 | 0.00 | 55 | 1012.2 |
| 20260505075016 | 23 | 0 | 0.0 | 0.0 | 0.00 | 0.00 | 0.00 | 55 | 1012.2 |
| 20260505074917 | 23 | 0 | 0.0 | 1.6 | 0.00 | 0.00 | 0.00 | 55 | 1012.2 |
| 20260505074817 | 23 | 0 | 0.0 | 1.6 | 0.00 | 0.00 | 0.00 | 55 | 1012.1 |
| 20260505074718 | 23 | 0 | 0.0 | 1.6 | 0.00 | 0.00 | 0.00 | 55 | 1012.2 |
| 20260505074617 | 23 | 0 | 0.0 | 1.6 | 0.00 | 0.00 | 0.00 | 55 | 1012.1 |
| 20260505074516 | 23 | 0 | 0.0 | 1.6 | 0.00 | 0.00 | 0.00 | 55 | 1012.2 |
| 20260505074416 | 23 | 0 | 0.0 | 1.6 | 0.00 | 0.00 | 0.00 | 55 | 1012.2 |
| 20260505074315 | 23 | 0 | 0.0 | 1.6 | 0.00 | 0.00 | 0.00 | 55 | 1012.1 |
| 20260505074216 | 23 | 0 | 0.0 | 1.6 | 0.00 | 0.00 | 0.00 | 54 | 1012.1 |
| 20260505074115 | 23 | 0 | 0.0 | 1.6 | 0.00 | 0.00 | 0.00 | 54 | 1012.1 |
| 20260505074016 | 23 | 37 | 0.0 | 1.6 | 0.00 | 0.00 | 0.00 | 55 | 1012.2 |
| 20260505073916 | 23 | 0 | 0.0 | 0.0 | 0.00 | 0.00 | 0.00 | 55 | 1012.2 |
| 20260505073816 | 23 | 0 | 0.0 | 0.0 | 0.00 | 0.00 | 0.00 | 55 | 1012.2 |
| 20260505073716 | 23 | 0 | 0.0 | 1.6 | 0.00 | 0.00 | 0.00 | 54 | 1012.2 |
| 20260505073615 | 23 | 0 | 0.0 | 1.6 | 0.00 | 0.00 | 0.00 | 55 | 1012.2 |
| 20260505073608 | 23 | 0 | 0.0 | 1.6 | 0.00 | 0.00 | 0.00 | 54 | 1012.3 |
| 20260505073416 | 23 | 0 | 0.0 | 1.6 | 0.00 | 0.00 | 0.00 | 55 | 1012.2 |
| 20260505073316 | 23 | 0 | 0.0 | 1.6 | 0.00 | 0.00 | 0.00 | 55 | 1012.3 |
| 20260505073216 | 23 | 0 | 0.0 | 1.6 | 0.00 | 0.00 | 0.00 | 55 | 1012.2 |
| 20260505073115 | 23 | 0 | 0.0 | 1.6 | 0.00 | 0.00 | 0.00 | 55 | 1012.3 |
| 20260505073016 | 23 | 0 | 0.0 | 1.6 | 0.00 | 0.00 | 0.00 | 55 | 1012.3 |
| 20260505072916 | 23 | 0 | 0.0 | 1.6 | 0.00 | 0.00 | 0.00 | 55 | 1012.3 |
| 20260505072816 | 23 | 92 | 0.0 | 1.6 | 0.00 | 0.00 | 0.00 | 55 | 1012.3 |
| 20260505072715 | 23 | 83 | 0.0 | 0.0 | 0.00 | 0.00 | 0.00 | 55 | 1012.3 |
| 20260505072616 | 23 | 0 | 0.0 | 0.0 | 0.00 | 0.00 | 0.00 | 55 | 1012.4 |
| 20260505072516 | 23 | 0 | 0.0 | 0.0 | 0.00 | 0.00 | 0.00 | 55 | 1012.4 |
| 20260505072416 | 23 | 0 | 0.0 | 0.0 | 0.00 | 0.00 | 0.00 | 55 | 1012.4 |
| 20260505072315 | 23 | 0 | 0.0 | 0.0 | 0.00 | 0.00 | 0.00 | 55 | 1012.4 |
| 20260505072216 | 23 | 0 | 0.0 | 0.0 | 0.00 | 0.00 | 0.00 | 55 | 1012.4 |
| 20260505072116 | 23 | 0 | 0.0 | 0.0 | 0.00 | 0.00 | 0.00 | 55 | 1012.4 |
| 20260505072015 | 23 | 0 | 0.0 | 0.0 | 0.00 | 0.00 | 0.00 | 55 | 1012.4 |
| 20260505071916 | 23 | 0 | 0.0 | 0.0 | 0.00 | 0.00 | 0.00 | 55 | 1012.4 |
| 20260505071816 | 23 | 0 | 0.0 | 0.0 | 0.00 | 0.00 | 0.00 | 55 | 1012.5 |
| 20260505071716 | 23 | 0 | 0.0 | 0.0 | 0.00 | 0.00 | 0.00 | 55 | 1012.5 |
| 20260505071616 | 23 | 0 | 0.0 | 0.0 | 0.00 | 0.00 | 0.00 | 55 | 1012.6 |
| 20260505071516 | 23 | 0 | 0.0 | 0.0 | 0.00 | 0.00 | 0.00 | 55 | 1012.6 |
| 20260505071416 | 23 | 0 | 0.0 | 1.6 | 0.00 | 0.00 | 0.00 | 55 | 1012.6 |
| 20260505071317 | 23 | 0 | 0.0 | 1.6 | 0.00 | 0.00 | 0.00 | 55 | 1012.6 |
| 20260505071216 | 23 | 0 | 0.0 | 1.6 | 0.00 | 0.00 | 0.00 | 55 | 1012.6 |
| 20260505071116 | 23 | 0 | 0.0 | 1.6 | 0.00 | 0.00 | 0.00 | 55 | 1012.7 |
| 20260505071016 | 23 | 0 | 0.0 | 1.6 | 0.00 | 0.00 | 0.00 | 55 | 1012.7 |
| 20260505070918 | 23 | 0 | 0.0 | 1.6 | 0.00 | 0.00 | 0.00 | 55 | 1012.6 |
| 20260505070816 | 23 | 0 | 0.0 | 1.6 | 0.00 | 0.00 | 0.00 | 55 | 1012.6 |
| 20260505070700 | 23 | 0 | 0.0 | 1.6 | 0.00 | 0.00 | 0.00 | 55 | 1012.6 |
| 20260505070602 | 23 | 0 | 0.0 | 1.6 | 0.00 | 0.00 | 0.00 | 55 | 1012.6 |
| 20260505070403 | 23 | 0 | 0.0 | 0.0 | 0.00 | 0.00 | 0.00 | 55 | 1012.6 |
| 20260505070303 | 23 | 0 | 0.0 | 0.0 | 0.00 | 0.00 | 0.00 | 55 | 1012.5 |
| 20260505070203 | 23 | 0 | 0.0 | 1.6 | 0.00 | 0.00 | 0.00 | 55 | 1012.6 |
| 20260505070004 | 23 | 0 | 0.0 | 1.6 | 0.00 | 0.00 | 0.00 | 56 | 1012.7 |
| 20260505065903 | 23 | 0 | 0.0 | 1.6 | 0.00 | 0.00 | 0.00 | 56 | 1012.7 |
| 20260505065803 | 23 | 0 | 0.0 | 1.6 | 0.00 | 0.00 | 0.00 | 55 | 1012.7 |
| 20260505065703 | 23 | 0 | 0.0 | 1.6 | 0.00 | 0.00 | 0.00 | 56 | 1012.7 |
| 20260505065603 | 23 | 0 | 0.0 | 1.6 | 0.00 | 0.00 | 0.00 | 55 | 1012.8 |
| 20260505065403 | 23 | 0 | 0.0 | 1.6 | 0.00 | 0.00 | 0.00 | 55 | 1012.8 |
| 20260505065303 | 23 | 0 | 0.0 | 1.6 | 0.00 | 0.00 | 0.00 | 55 | 1012.8 |
| 20260505065203 | 23 | 58 | 0.0 | 1.6 | 0.00 | 0.00 | 0.00 | 56 | 1012.8 |
| 20260505065102 | 23 | 0 | 0.0 | 0.0 | 0.00 | 0.00 | 0.00 | 56 | 1012.8 |
| 20260505065003 | 23 | 0 | 0.0 | 0.0 | 0.00 | 0.00 | 0.00 | 55 | 1012.8 |
| 20260505064903 | 23 | 0 | 0.0 | 0.0 | 0.00 | 0.00 | 0.00 | 56 | 1012.9 |
| 20260505064803 | 23 | 0 | 0.0 | 0.0 | 0.00 | 0.00 | 0.00 | 55 | 1012.9 |
| 20260505064702 | 23 | 0 | 0.0 | 0.0 | 0.00 | 0.00 | 0.00 | 55 | 1012.9 |
| 20260505064603 | 23 | 0 | 0.0 | 0.0 | 0.00 | 0.00 | 0.00 | 56 | 1012.9 |
| 20260505064402 | 23 | 0 | 0.0 | 0.0 | 0.00 | 0.00 | 0.00 | 55 | 1012.9 |
| 20260505064303 | 23 | 0 | 0.0 | 0.0 | 0.00 | 0.00 | 0.00 | 55 | 1012.9 |
| 20260505064204 | 23 | 0 | 0.0 | 0.0 | 0.00 | 0.00 | 0.00 | 55 | 1012.9 |
| 20260505064103 | 23 | 0 | 0.0 | 0.0 | 0.00 | 0.00 | 0.00 | 55 | 1012.9 |
| 20260505063903 | 23 | 0 | 0.0 | 0.0 | 0.00 | 0.00 | 0.00 | 55 | 1012.9 |
| 20260505063803 | 23 | 0 | 0.0 | 0.0 | 0.00 | 0.00 | 0.00 | 55 | 1012.9 |
| 20260505063703 | 23 | 0 | 0.0 | 0.0 | 0.00 | 0.00 | 0.00 | 55 | 1012.9 |
| 20260505063605 | 23 | 0 | 0.0 | 0.0 | 0.00 | 0.00 | 0.00 | 55 | 1013.0 |
| 20260505063504 | 23 | 0 | 0.0 | 0.0 | 0.00 | 0.00 | 0.00 | 56 | 1013.0 |
| 20260505063403 | 23 | 0 | 0.0 | 0.0 | 0.00 | 0.00 | 0.00 | 55 | 1013.0 |
| 20260505063303 | 23 | 0 | 0.0 | 0.0 | 0.00 | 0.00 | 0.00 | 55 | 1013.0 |
| 20260505063203 | 23 | 0 | 0.0 | 0.0 | 0.00 | 0.00 | 0.00 | 55 | 1013.0 |
| 20260505063103 | 23 | 0 | 0.0 | 0.0 | 0.00 | 0.00 | 0.00 | 55 | 1013.1 |
| 20260505063004 | 23 | 0 | 0.0 | 0.0 | 0.00 | 0.00 | 0.00 | 55 | 1013.1 |
| 20260505062903 | 23 | 0 | 0.0 | 0.0 | 0.00 | 0.00 | 0.00 | 55 | 1013.1 |
| 20260505062803 | 23 | 0 | 0.0 | 0.0 | 0.00 | 0.00 | 0.00 | 55 | 1013.2 |
| 20260505062704 | 23 | 0 | 0.0 | 0.0 | 0.00 | 0.00 | 0.00 | 55 | 1013.2 |
| 20260505062603 | 23 | 0 | 0.0 | 0.0 | 0.00 | 0.00 | 0.00 | 55 | 1013.2 |
| 20260505062404 | 23 | 0 | 0.0 | 0.0 | 0.00 | 0.00 | 0.00 | 55 | 1013.3 |
| 20260505062304 | 23 | 0 | 0.0 | 0.0 | 0.00 | 0.00 | 0.00 | 55 | 1013.4 |
| 20260505062203 | 23 | 0 | 0.0 | 0.0 | 0.00 | 0.00 | 0.00 | 55 | 1013.4 |
| 20260505062104 | 23 | 0 | 0.0 | 0.0 | 0.00 | 0.00 | 0.00 | 55 | 1013.4 |
| 20260505062003 | 23 | 0 | 0.0 | 0.0 | 0.00 | 0.00 | 0.00 | 55 | 1013.4 |
| 20260505061903 | 23 | 0 | 0.0 | 0.0 | 0.00 | 0.00 | 0.00 | 55 | 1013.5 |
| 20260505061813 | 23 | 0 | 0.0 | 0.0 | 0.00 | 0.00 | 0.00 | 55 | 1013.5 |
| 20260505061803 | 23 | 0 | 0.0 | 0.0 | 0.00 | 0.00 | 0.00 | 55 | 1013.5 |
| 20260505061548 | 23 | 0 | 0.0 | 0.0 | 0.00 | 0.00 | 0.00 | 55 | 1013.5 |
| 20260505061349 | 23 | 0 | 0.0 | 0.0 | 0.00 | 0.00 | 0.00 | 55 | 1013.5 |
| 20260505061248 | 23 | 0 | 0.0 | 0.0 | 0.00 | 0.00 | 0.00 | 55 | 1013.5 |
| 20260505061149 | 23 | 0 | 0.0 | 0.0 | 0.00 | 0.00 | 0.00 | 55 | 1013.6 |
| 20260505061101 | 23 | 0 | 0.0 | 0.0 | 0.00 | 0.00 | 0.00 | 55 | 1013.6 |
| 20260505061001 | 23 | 0 | 0.0 | 0.0 | 0.00 | 0.00 | 0.00 | 55 | 1013.6 |
| 20260505060901 | 23 | 0 | 0.0 | 0.0 | 0.00 | 0.00 | 0.00 | 55 | 1013.6 |
| 20260505060749 | 23 | 0 | 0.0 | 0.0 | 0.00 | 0.00 | 0.00 | 55 | 1013.6 |
| 20260505060647 | 23 | 0 | 0.0 | 0.0 | 0.00 | 0.00 | 0.00 | 55 | 1013.7 |
| 20260505060534 | 23 | 0 | 0.0 | 0.0 | 0.00 | 0.00 | 0.00 | 55 | 1013.7 |
| 20260505060334 | 23 | 0 | 0.0 | 0.0 | 0.00 | 0.00 | 0.00 | 55 | 1013.6 |
| 20260505060234 | 23 | 0 | 0.0 | 0.0 | 0.00 | 0.00 | 0.00 | 55 | 1013.6 |
| 20260505060134 | 23 | 0 | 0.0 | 0.0 | 0.00 | 0.00 | 0.00 | 55 | 1013.6 |
| 20260505060034 | 23 | 0 | 0.0 | 0.0 | 0.00 | 0.00 | 0.00 | 55 | 1013.6 |
| 20260505055834 | 23 | 0 | 0.0 | 0.0 | 0.00 | 0.00 | 0.00 | 55 | 1013.7 |
| 20260505055733 | 23 | 0 | 0.0 | 0.0 | 0.00 | 0.00 | 0.00 | 55 | 1013.8 |
| 20260505055634 | 23 | 52 | 0.0 | 0.0 | 0.00 | 0.00 | 0.00 | 55 | 1013.7 |
| 20260505055533 | 23 | 0 | 0.0 | 0.0 | 0.00 | 0.00 | 0.00 | 55 | 1013.8 |
| 20260505055333 | 23 | 181 | 0.0 | 0.0 | 0.00 | 0.00 | 0.00 | 55 | 1013.8 |
| 20260505055238 | 23 | 0 | 0.0 | 0.0 | 0.00 | 0.00 | 0.00 | 55 | 1013.8 |
| 20260505055134 | 23 | 0 | 0.0 | 0.0 | 0.00 | 0.00 | 0.00 | 55 | 1013.8 |
| 20260505055034 | 23 | 0 | 0.0 | 0.0 | 0.00 | 0.00 | 0.00 | 55 | 1013.8 |
| 20260505054834 | 23 | 0 | 0.0 | 0.0 | 0.00 | 0.00 | 0.00 | 55 | 1013.8 |
| 20260505054734 | 23 | 0 | 0.0 | 0.0 | 0.00 | 0.00 | 0.00 | 55 | 1013.7 |
| 20260505054633 | 23 | 0 | 0.0 | 0.0 | 0.00 | 0.00 | 0.00 | 55 | 1013.7 |
| 20260505054534 | 23 | 0 | 0.0 | 0.0 | 0.00 | 0.00 | 0.00 | 55 | 1013.7 |
| 20260505054334 | 23 | 0 | 0.0 | 0.0 | 0.00 | 0.00 | 0.00 | 55 | 1013.7 |
| 20260505054234 | 23 | 0 | 0.0 | 0.0 | 0.00 | 0.00 | 0.00 | 55 | 1013.7 |
| 20260505054137 | 23 | 0 | 0.0 | 0.0 | 0.00 | 0.00 | 0.00 | 55 | 1013.7 |
| 20260505054034 | 23 | 0 | 0.0 | 0.0 | 0.00 | 0.00 | 0.00 | 55 | 1013.7 |
| 20260505053826 | 23 | 0 | 0.0 | 0.0 | 0.00 | 0.00 | 0.00 | 55 | 1013.7 |
| 20260505053717 | 23 | 0 | 0.0 | 0.0 | 0.00 | 0.00 | 0.00 | 55 | 1013.7 |
| 20260505053617 | 23 | 0 | 0.0 | 0.0 | 0.00 | 0.00 | 0.00 | 55 | 1013.7 |
| 20260505053517 | 23 | 0 | 0.0 | 0.0 | 0.00 | 0.00 | 0.00 | 55 | 1013.7 |
| 20260505053417 | 23 | 0 | 0.0 | 0.0 | 0.00 | 0.00 | 0.00 | 55 | 1013.7 |
| 20260505053317 | 23 | 0 | 0.0 | 0.0 | 0.00 | 0.00 | 0.00 | 55 | 1013.7 |
| 20260505053215 | 23 | 0 | 0.0 | 0.0 | 0.00 | 0.00 | 0.00 | 55 | 1013.7 |
| 20260505053116 | 23 | 0 | 0.0 | 0.0 | 0.00 | 0.00 | 0.00 | 55 | 1013.7 |
| 20260505053016 | 23 | 0 | 0.0 | 0.0 | 0.00 | 0.00 | 0.00 | 55 | 1013.7 |
| 20260505052916 | 23 | 0 | 0.0 | 0.0 | 0.00 | 0.00 | 0.00 | 55 | 1013.7 |
| 20260505052816 | 23 | 0 | 0.0 | 1.6 | 0.00 | 0.00 | 0.00 | 55 | 1013.6 |
| 20260505052716 | 23 | 0 | 0.0 | 1.6 | 0.00 | 0.00 | 0.00 | 55 | 1013.7 |
| 20260505052621 | 23 | 0 | 0.0 | 1.6 | 0.00 | 0.00 | 0.00 | 55 | 1013.6 |
| 20260505052616 | 23 | 0 | 0.0 | 1.6 | 0.00 | 0.00 | 0.00 | 55 | 1013.6 |
| 20260505052402 | 23 | 0 | 0.0 | 1.6 | 0.00 | 0.00 | 0.00 | 55 | 1013.6 |
| 20260505052306 | 23 | 0 | 0.0 | 1.6 | 0.00 | 0.00 | 0.00 | 55 | 1013.5 |
| 20260505052259 | 23 | 0 | 0.0 | 1.6 | 0.00 | 0.00 | 0.00 | 55 | 1013.5 |
| 20260505052102 | 23 | 0 | 0.0 | 1.6 | 0.00 | 0.00 | 0.00 | 55 | 1013.5 |
| 20260505052038 | 23 | 0 | 0.0 | 1.6 | 0.00 | 0.00 | 0.00 | 55 | 1013.5 |
| 20260505051903 | 23 | 190 | 0.0 | 1.6 | 0.00 | 0.00 | 0.00 | 55 | 1013.4 |
| 20260505051803 | 23 | 0 | 0.0 | 0.0 | 0.00 | 0.00 | 0.00 | 55 | 1013.5 |
| 20260505051702 | 23 | 0 | 0.0 | 0.0 | 0.00 | 0.00 | 0.00 | 55 | 1013.5 |
| 20260505051603 | 23 | 0 | 0.0 | 0.0 | 0.00 | 0.00 | 0.00 | 55 | 1013.5 |
| 20260505051541 | 23 | 0 | 0.0 | 0.0 | 0.00 | 0.00 | 0.00 | 55 | 1013.5 |
| 20260505051403 | 23 | 0 | 0.0 | 0.0 | 0.00 | 0.00 | 0.00 | 55 | 1013.5 |
| 20260505051303 | 23 | 0 | 0.0 | 0.0 | 0.00 | 0.00 | 0.00 | 55 | 1013.5 |
| 20260505051204 | 23 | 0 | 0.0 | 0.0 | 0.00 | 0.00 | 0.00 | 55 | 1013.5 |
| 20260505051049 | 23 | 244 | 0.0 | 0.0 | 0.00 | 0.00 | 0.00 | 55 | 1013.5 |
| 20260505050843 | 23 | 0 | 0.0 | 0.0 | 0.00 | 0.00 | 0.00 | 55 | 1013.4 |
| 20260505050735 | 23 | 0 | 0.0 | 0.0 | 0.00 | 0.00 | 0.00 | 55 | 1013.4 |
| 20260505050634 | 23 | 0 | 0.0 | 0.0 | 0.00 | 0.00 | 0.00 | 55 | 1013.4 |
| 20260505050535 | 23 | 0 | 0.0 | 0.0 | 0.00 | 0.00 | 0.00 | 55 | 1013.4 |
| 20260505050334 | 23 | 0 | 0.0 | 0.0 | 0.00 | 0.00 | 0.00 | 55 | 1013.5 |
| 20260505050234 | 23 | 0 | 0.0 | 0.0 | 0.00 | 0.00 | 0.00 | 55 | 1013.5 |
| 20260505050134 | 23 | 0 | 0.0 | 0.0 | 0.00 | 0.00 | 0.00 | 55 | 1013.4 |
| 20260505041220 | 23 | 0 | 0.0 | 1.6 | 0.00 | 0.00 | 0.00 | 53 | 1013.9 |
| 20260505041120 | 23 | 0 | 0.0 | 1.6 | 0.00 | 0.00 | 0.00 | 53 | 1013.9 |
| 20260505041018 | 23 | 0 | 0.0 | 3.2 | 0.00 | 0.00 | 0.00 | 53 | 1013.9 |
| 20260505040819 | 23 | 0 | 0.0 | 3.2 | 0.00 | 0.00 | 0.00 | 53 | 1013.9 |
| 20260505040719 | 23 | 0 | 0.0 | 3.2 | 0.00 | 0.00 | 0.00 | 53 | 1013.9 |
| 20260505040619 | 23 | 0 | 0.0 | 3.2 | 0.00 | 0.00 | 0.00 | 54 | 1013.8 |
| 20260505040519 | 23 | 0 | 0.0 | 3.2 | 0.00 | 0.00 | 0.00 | 54 | 1013.9 |
| 20260505040319 | 23 | 0 | 0.0 | 3.2 | 0.00 | 0.00 | 0.00 | 54 | 1013.8 |
| 20260505040219 | 23 | 0 | 0.0 | 3.2 | 0.00 | 0.00 | 0.00 | 54 | 1013.8 |
| 20260505040119 | 23 | 0 | 0.0 | 3.2 | 0.00 | 0.00 | 0.00 | 54 | 1013.9 |
| 20260505040019 | 23 | 0 | 0.0 | 3.2 | 0.00 | 0.00 | 0.00 | 54 | 1013.9 |
| 20260505035919 | 23 | 329 | 0.0 | 3.2 | 0.00 | 0.00 | 0.00 | 54 | 1013.9 |
| 20260505035819 | 23 | 0 | 0.0 | 1.6 | 0.00 | 0.00 | 0.00 | 54 | 1013.9 |
| 20260505035719 | 23 | 119 | 0.0 | 1.6 | 0.00 | 0.00 | 0.00 | 54 | 1013.9 |
| 20260505035306 | 23 | 0 | 0.0 | 1.6 | 0.00 | 0.00 | 0.00 | 54 | 1013.9 |
| 20260505035206 | 23 | 0 | 0.0 | 1.6 | 0.00 | 0.00 | 0.00 | 54 | 1013.9 |
| 20260505035106 | 23 | 0 | 0.0 | 1.6 | 0.00 | 0.00 | 0.00 | 54 | 1013.9 |
| 20260505035006 | 23 | 0 | 0.0 | 1.6 | 0.00 | 0.00 | 0.00 | 54 | 1013.9 |
| 20260505034527 | 22 | 0 | 0.0 | 1.6 | 0.00 | 0.00 | 0.00 | 54 | 1014.0 |
| 20260505034427 | 23 | 0 | 0.0 | 1.6 | 0.00 | 0.00 | 0.00 | 54 | 1014.1 |
| 20260505034327 | 23 | 0 | 0.0 | 1.6 | 0.00 | 0.00 | 0.00 | 54 | 1014.0 |
| 20260505034227 | 22 | 0 | 0.0 | 1.6 | 0.00 | 0.00 | 0.00 | 54 | 1014.0 |
| 20260505034127 | 22 | 0 | 0.0 | 1.6 | 0.00 | 0.00 | 0.00 | 54 | 1014.1 |
| 20260505034027 | 23 | 0 | 0.0 | 1.6 | 0.00 | 0.00 | 0.00 | 54 | 1014.1 |
| 20260505033927 | 23 | 0 | 0.0 | 1.6 | 0.00 | 0.00 | 0.00 | 54 | 1014.0 |
| 20260505033828 | 23 | 0 | 0.0 | 1.6 | 0.00 | 0.00 | 0.00 | 54 | 1014.0 |
| 20260505033727 | 22 | 0 | 0.0 | 1.6 | 0.00 | 0.00 | 0.00 | 54 | 1014.0 |
| 20260505033627 | 23 | 0 | 0.0 | 1.6 | 0.00 | 0.00 | 0.00 | 54 | 1013.9 |
| 20260505033527 | 23 | 0 | 0.0 | 1.6 | 0.00 | 0.00 | 0.00 | 54 | 1014.0 |
| 20260505033427 | 22 | 0 | 0.0 | 1.6 | 0.00 | 0.00 | 0.00 | 54 | 1013.9 |
| 20260505033327 | 22 | 0 | 0.0 | 1.6 | 0.00 | 0.00 | 0.00 | 54 | 1014.0 |
| 20260505033227 | 22 | 0 | 0.0 | 1.6 | 0.00 | 0.00 | 0.00 | 54 | 1013.9 |
| 20260505033128 | 22 | 0 | 0.0 | 1.6 | 0.00 | 0.00 | 0.00 | 54 | 1013.9 |
| 20260505033028 | 23 | 0 | 0.0 | 1.6 | 0.00 | 0.00 | 0.00 | 54 | 1013.9 |
| 20260505032926 | 22 | 0 | 0.0 | 1.6 | 0.00 | 0.00 | 0.00 | 54 | 1013.9 |
| 20260505032822 | 22 | 0 | 0.0 | 1.6 | 0.00 | 0.00 | 0.00 | 54 | 1013.9 |
| 20260505032746 | 22 | 0 | 0.0 | 1.6 | 0.00 | 0.00 | 0.00 | 54 | 1013.9 |
| 20260505032622 | 22 | 0 | 0.0 | 1.6 | 0.00 | 0.00 | 0.00 | 54 | 1013.9 |
| 20260505032521 | 22 | 0 | 0.0 | 1.6 | 0.00 | 0.00 | 0.00 | 54 | 1013.9 |
| 20260505032419 | 22 | 345 | 0.0 | 1.6 | 0.00 | 0.00 | 0.00 | 54 | 1013.9 |
| 20260505032318 | 22 | 0 | 0.0 | 1.6 | 0.00 | 0.00 | 0.00 | 54 | 1013.9 |
| 20260505032247 | 22 | 0 | 0.0 | 1.6 | 0.00 | 0.00 | 0.00 | 53 | 1013.9 |
| 20260505032118 | 22 | 0 | 0.0 | 1.6 | 0.00 | 0.00 | 0.00 | 53 | 1013.9 |
| 20260505032019 | 22 | 0 | 0.0 | 1.6 | 0.00 | 0.00 | 0.00 | 53 | 1013.9 |
| 20260505031916 | 22 | 0 | 0.0 | 1.6 | 0.00 | 0.00 | 0.00 | 53 | 1013.9 |
| 20260505031817 | 22 | 0 | 0.0 | 1.6 | 0.00 | 0.00 | 0.00 | 53 | 1013.9 |
| 20260505031716 | 22 | 0 | 0.0 | 1.6 | 0.00 | 0.00 | 0.00 | 53 | 1014.0 |
| 20260505031617 | 23 | 305 | 0.0 | 1.6 | 0.00 | 0.00 | 0.00 | 53 | 1013.9 |
| 20260505031516 | 22 | 0 | 0.0 | 3.2 | 0.00 | 0.00 | 0.00 | 53 | 1013.9 |
| 20260505031417 | 23 | 0 | 0.0 | 3.2 | 0.00 | 0.00 | 0.00 | 53 | 1013.9 |
| 20260505031317 | 23 | 0 | 0.0 | 3.2 | 0.00 | 0.00 | 0.00 | 54 | 1013.8 |
| 20260505031216 | 23 | 0 | 0.0 | 3.2 | 0.00 | 0.00 | 0.00 | 54 | 1013.8 |
| 20260505031117 | 23 | 0 | 0.0 | 3.2 | 0.00 | 0.00 | 0.00 | 54 | 1013.8 |
| 20260505031016 | 23 | 0 | 0.0 | 3.2 | 0.00 | 0.00 | 0.00 | 54 | 1013.7 |
| 20260505030917 | 23 | 0 | 0.0 | 3.2 | 0.00 | 0.00 | 0.00 | 55 | 1013.8 |
| 20260505030816 | 22 | 0 | 0.0 | 3.2 | 0.00 | 0.00 | 0.00 | 55 | 1013.7 |
| 20260505030716 | 22 | 0 | 0.0 | 3.2 | 0.00 | 0.00 | 0.00 | 54 | 1013.7 |
| 20260505030617 | 22 | 0 | 0.0 | 3.2 | 0.00 | 0.00 | 0.00 | 54 | 1013.7 |
| 20260505030517 | 22 | 0 | 0.0 | 3.2 | 0.00 | 0.00 | 0.00 | 54 | 1013.7 |
| 20260505030417 | 22 | 115 | 0.0 | 3.2 | 0.00 | 0.00 | 0.00 | 54 | 1013.7 |
| 20260505030317 | 22 | 0 | 1.6 | 3.2 | 0.00 | 0.00 | 0.00 | 54 | 1013.7 |
| 20260505030216 | 22 | 0 | 1.6 | 3.2 | 0.00 | 0.00 | 0.00 | 54 | 1013.7 |
| 20260505030117 | 22 | 24 | 1.6 | 3.2 | 0.00 | 0.00 | 0.00 | 54 | 1013.7 |
| 20260505030016 | 22 | 0 | 1.6 | 3.2 | 0.00 | 0.00 | 0.00 | 54 | 1013.7 |
| 20260505025917 | 22 | 0 | 1.6 | 3.2 | 0.00 | 0.00 | 0.00 | 54 | 1013.7 |
| 20260505025817 | 22 | 337 | 1.6 | 3.2 | 0.00 | 0.00 | 0.00 | 54 | 1013.7 |
| 20260505025717 | 22 | 0 | 0.0 | 3.2 | 0.00 | 0.00 | 0.00 | 54 | 1013.6 |
| 20260505025616 | 22 | 352 | 0.0 | 3.2 | 0.00 | 0.00 | 0.00 | 54 | 1013.6 |
| 20260505025517 | 22 | 73 | 0.0 | 3.2 | 0.00 | 0.00 | 0.00 | 54 | 1013.6 |
| 20260505025417 | 22 | 122 | 0.0 | 3.2 | 0.00 | 0.00 | 0.00 | 54 | 1013.6 |
| 20260505025317 | 22 | 65 | 0.0 | 3.2 | 0.00 | 0.00 | 0.00 | 54 | 1013.7 |
| 20260505025217 | 22 | 26 | 0.0 | 3.2 | 0.00 | 0.00 | 0.00 | 54 | 1013.7 |
| 20260505025117 | 22 | 39 | 0.0 | 3.2 | 0.00 | 0.00 | 0.00 | 54 | 1013.7 |
| 20260505025017 | 22 | 52 | 0.0 | 3.2 | 0.00 | 0.00 | 0.00 | 54 | 1013.6 |
| 20260505024917 | 22 | 0 | 0.0 | 3.2 | 0.00 | 0.00 | 0.00 | 54 | 1013.6 |
| 20260505024817 | 22 | 0 | 0.0 | 3.2 | 0.00 | 0.00 | 0.00 | 54 | 1013.5 |
| 20260505024742 | 22 | 0 | 0.0 | 3.2 | 0.00 | 0.00 | 0.00 | 54 | 1013.5 |
| 20260505024617 | 22 | 0 | 0.0 | 3.2 | 0.00 | 0.00 | 0.00 | 54 | 1013.6 |
| 20260505024517 | 22 | 0 | 0.0 | 3.2 | 0.00 | 0.00 | 0.00 | 54 | 1013.6 |
| 20260505024416 | 22 | 0 | 0.0 | 3.2 | 0.00 | 0.00 | 0.00 | 54 | 1013.6 |
| 20260505024317 | 22 | 0 | 0.0 | 1.6 | 0.00 | 0.00 | 0.00 | 54 | 1013.7 |
| 20260505024217 | 22 | 0 | 0.0 | 1.6 | 0.00 | 0.00 | 0.00 | 54 | 1013.7 |
| 20260505024118 | 22 | 0 | 0.0 | 1.6 | 0.00 | 0.00 | 0.00 | 54 | 1013.8 |
| 20260505024017 | 22 | 0 | 0.0 | 1.6 | 0.00 | 0.00 | 0.00 | 54 | 1013.7 |
| 20260505023918 | 22 | 188 | 0.0 | 1.6 | 0.00 | 0.00 | 0.00 | 54 | 1013.8 |
| 20260505023817 | 22 | 0 | 0.0 | 1.6 | 0.00 | 0.00 | 0.00 | 54 | 1013.8 |
| 20260505023717 | 22 | 0 | 0.0 | 1.6 | 0.00 | 0.00 | 0.00 | 54 | 1013.7 |
| 20260505023617 | 22 | 0 | 0.0 | 1.6 | 0.00 | 0.00 | 0.00 | 54 | 1013.6 |
| 20260505023517 | 22 | 0 | 0.0 | 1.6 | 0.00 | 0.00 | 0.00 | 54 | 1013.6 |
| 20260505023417 | 22 | 0 | 0.0 | 1.6 | 0.00 | 0.00 | 0.00 | 53 | 1013.6 |
| 20260505023317 | 22 | 0 | 0.0 | 1.6 | 0.00 | 0.00 | 0.00 | 53 | 1013.6 |
| 20260505023242 | 22 | 0 | 0.0 | 1.6 | 0.00 | 0.00 | 0.00 | 53 | 1013.6 |
| 20260505023117 | 22 | 0 | 0.0 | 1.6 | 0.00 | 0.00 | 0.00 | 53 | 1013.7 |
| 20260505023017 | 22 | 0 | 0.0 | 1.6 | 0.00 | 0.00 | 0.00 | 53 | 1013.7 |
| 20260505022917 | 22 | 0 | 0.0 | 1.6 | 0.00 | 0.00 | 0.00 | 53 | 1013.8 |
| 20260505022817 | 22 | 0 | 0.0 | 3.2 | 0.00 | 0.00 | 0.00 | 53 | 1013.8 |
| 20260505022743 | 22 | 0 | 0.0 | 3.2 | 0.00 | 0.00 | 0.00 | 53 | 1013.8 |
| 20260505022617 | 22 | 0 | 0.0 | 3.2 | 0.00 | 0.00 | 0.00 | 53 | 1013.8 |
| 20260505022517 | 22 | 359 | 0.0 | 3.2 | 0.00 | 0.00 | 0.00 | 53 | 1013.7 |
| 20260505022417 | 22 | 0 | 0.0 | 3.2 | 0.00 | 0.00 | 0.00 | 53 | 1013.7 |
| 20260505022317 | 22 | 0 | 0.0 | 3.2 | 0.00 | 0.00 | 0.00 | 53 | 1013.7 |
| 20260505022242 | 22 | 0 | 0.0 | 3.2 | 0.00 | 0.00 | 0.00 | 52 | 1013.7 |
| 20260505022117 | 22 | 10 | 0.0 | 3.2 | 0.00 | 0.00 | 0.00 | 53 | 1013.7 |
| 20260505022018 | 22 | 0 | 0.0 | 3.2 | 0.00 | 0.00 | 0.00 | 53 | 1013.6 |
| 20260505021917 | 22 | 0 | 0.0 | 3.2 | 0.00 | 0.00 | 0.00 | 53 | 1013.7 |
| 20260505021818 | 22 | 282 | 0.0 | 1.6 | 0.00 | 0.00 | 0.00 | 53 | 1013.6 |
| 20260505021743 | 22 | 0 | 0.0 | 1.6 | 0.00 | 0.00 | 0.00 | 53 | 1013.7 |
| 20260505021617 | 22 | 0 | 0.0 | 1.6 | 0.00 | 0.00 | 0.00 | 53 | 1013.7 |
| 20260505021518 | 22 | 0 | 0.0 | 1.6 | 0.00 | 0.00 | 0.00 | 53 | 1013.7 |
| 20260505021417 | 22 | 0 | 0.0 | 1.6 | 0.00 | 0.00 | 0.00 | 53 | 1013.6 |
| 20260505021317 | 22 | 0 | 0.0 | 3.2 | 0.00 | 0.00 | 0.00 | 53 | 1013.6 |
| 20260505021218 | 22 | 253 | 0.0 | 3.2 | 0.00 | 0.00 | 0.00 | 53 | 1013.7 |
| 20260505021117 | 22 | 0 | 0.0 | 3.2 | 0.00 | 0.00 | 0.00 | 53 | 1013.7 |
| 20260505021018 | 22 | 0 | 0.0 | 3.2 | 0.00 | 0.00 | 0.00 | 53 | 1013.7 |
| 20260505020917 | 22 | 0 | 0.0 | 3.2 | 0.00 | 0.00 | 0.00 | 53 | 1013.7 |
| 20260505020818 | 22 | 0 | 0.0 | 3.2 | 0.00 | 0.00 | 0.00 | 53 | 1013.6 |
| 20260505020717 | 22 | 0 | 0.0 | 3.2 | 0.00 | 0.00 | 0.00 | 53 | 1013.6 |
| 20260505020617 | 22 | 45 | 0.0 | 3.2 | 0.00 | 0.00 | 0.00 | 53 | 1013.6 |
| 20260505020517 | 22 | 33 | 0.0 | 3.2 | 0.00 | 0.00 | 0.00 | 53 | 1013.6 |
| 20260505020416 | 22 | 0 | 0.0 | 3.2 | 0.00 | 0.00 | 0.00 | 52 | 1013.6 |
| 20260505020314 | 22 | 68 | 0.0 | 3.2 | 0.00 | 0.00 | 0.00 | 52 | 1013.6 |
| 20260505020214 | 22 | 57 | 0.0 | 3.2 | 0.00 | 0.00 | 0.00 | 52 | 1013.6 |
| 20260505020113 | 22 | 0 | 0.0 | 3.2 | 0.00 | 0.00 | 0.00 | 52 | 1013.6 |
| 20260505020012 | 22 | 20 | 0.0 | 3.2 | 0.00 | 0.00 | 0.00 | 52 | 1013.6 |
| 20260505015911 | 22 | 0 | 0.0 | 3.2 | 0.00 | 0.00 | 0.00 | 52 | 1013.5 |
| 20260505015808 | 22 | 64 | 0.0 | 3.2 | 0.00 | 0.00 | 0.00 | 52 | 1013.5 |
| 20260505015707 | 22 | 34 | 0.0 | 3.2 | 0.00 | 0.00 | 0.00 | 52 | 1013.6 |
| 20260505015608 | 22 | 48 | 0.0 | 3.2 | 0.00 | 0.00 | 0.00 | 52 | 1013.5 |
| 20260505015508 | 23 | 65 | 0.0 | 3.2 | 0.00 | 0.00 | 0.00 | 53 | 1013.5 |
| 20260505015411 | 23 | 110 | 0.0 | 3.2 | 0.00 | 0.00 | 0.00 | 53 | 1013.5 |
| 20260505015308 | 23 | 41 | 0.0 | 3.2 | 0.00 | 0.00 | 0.00 | 53 | 1013.5 |
| 20260505015208 | 22 | 0 | 0.0 | 3.2 | 0.00 | 0.00 | 0.00 | 53 | 1013.5 |
| 20260505015108 | 23 | 0 | 0.0 | 3.2 | 0.00 | 0.00 | 0.00 | 53 | 1013.5 |
| 20260505015008 | 22 | 49 | 0.0 | 3.2 | 0.00 | 0.00 | 0.00 | 53 | 1013.5 |
| 20260505014908 | 23 | 47 | 0.0 | 3.2 | 0.00 | 0.00 | 0.00 | 54 | 1013.5 |
| 20260505014807 | 23 | 308 | 0.0 | 3.2 | 0.00 | 0.00 | 0.00 | 54 | 1013.5 |
| 20260505014708 | 23 | 42 | 0.0 | 3.2 | 0.00 | 0.00 | 0.00 | 54 | 1013.5 |
| 20260505014608 | 22 | 0 | 0.0 | 3.2 | 0.00 | 0.00 | 0.00 | 54 | 1013.5 |
| 20260505014508 | 23 | 0 | 0.0 | 3.2 | 0.00 | 0.00 | 0.00 | 54 | 1013.4 |
| 20260505014412 | 23 | 54 | 0.0 | 3.2 | 0.00 | 0.00 | 0.00 | 54 | 1013.4 |
| 20260505014308 | 22 | 0 | 0.0 | 3.2 | 0.00 | 0.00 | 0.00 | 54 | 1013.5 |
| 20260505014208 | 23 | 24 | 0.0 | 3.2 | 0.00 | 0.00 | 0.00 | 54 | 1013.5 |
| 20260505014109 | 23 | 20 | 0.0 | 3.2 | 0.00 | 0.00 | 0.00 | 54 | 1013.4 |
| 20260505014008 | 22 | 323 | 0.0 | 3.2 | 0.00 | 0.00 | 0.00 | 53 | 1013.4 |
| 20260505013908 | 23 | 0 | 0.0 | 3.2 | 0.00 | 0.00 | 0.00 | 53 | 1013.4 |
| 20260505013808 | 23 | 0 | 0.0 | 3.2 | 0.00 | 0.00 | 0.00 | 53 | 1013.3 |
| 20260505013708 | 22 | 0 | 0.0 | 3.2 | 0.00 | 0.00 | 0.00 | 53 | 1013.3 |
| 20260505013608 | 23 | 0 | 0.0 | 3.2 | 0.00 | 0.00 | 0.00 | 53 | 1013.3 |
| 20260505013508 | 23 | 265 | 0.0 | 3.2 | 0.00 | 0.00 | 0.00 | 53 | 1013.3 |
| 20260505013414 | 23 | 0 | 0.0 | 3.2 | 0.00 | 0.00 | 0.00 | 53 | 1013.3 |
| 20260505013308 | 23 | 0 | 0.0 | 3.2 | 0.00 | 0.00 | 0.00 | 53 | 1013.3 |
| 20260505013208 | 23 | 0 | 0.0 | 3.2 | 0.00 | 0.00 | 0.00 | 53 | 1013.2 |
| 20260505013108 | 23 | 0 | 0.0 | 3.2 | 0.00 | 0.00 | 0.00 | 54 | 1013.1 |
| 20260505013008 | 23 | 315 | 0.0 | 3.2 | 0.00 | 0.00 | 0.00 | 54 | 1013.1 |
| 20260505012909 | 23 | 0 | 0.0 | 3.2 | 0.00 | 0.00 | 0.00 | 54 | 1013.1 |
| 20260505012808 | 23 | 0 | 0.0 | 3.2 | 0.00 | 0.00 | 0.00 | 54 | 1013.1 |
| 20260505012709 | 23 | 228 | 0.0 | 3.2 | 0.00 | 0.00 | 0.00 | 54 | 1013.1 |
| 20260505012608 | 23 | 0 | 0.0 | 3.2 | 0.00 | 0.00 | 0.00 | 55 | 1013.1 |
| 20260505012508 | 23 | 0 | 0.0 | 3.2 | 0.00 | 0.00 | 0.00 | 54 | 1013.1 |
| 20260505012419 | 23 | 214 | 0.0 | 3.2 | 0.00 | 0.00 | 0.00 | 54 | 1013.1 |
| 20260505012308 | 22 | 0 | 0.0 | 3.2 | 0.00 | 0.00 | 0.00 | 54 | 1013.1 |
| 20260505012208 | 23 | 0 | 0.0 | 3.2 | 0.00 | 0.00 | 0.00 | 54 | 1013.1 |
| 20260505012108 | 23 | 0 | 0.0 | 3.2 | 0.00 | 0.00 | 0.00 | 54 | 1013.1 |
| 20260505012008 | 23 | 0 | 0.0 | 3.2 | 0.00 | 0.00 | 0.00 | 54 | 1013.1 |
| 20260505011908 | 23 | 0 | 0.0 | 3.2 | 0.00 | 0.00 | 0.00 | 54 | 1013.1 |
| 20260505011808 | 23 | 0 | 0.0 | 3.2 | 0.00 | 0.00 | 0.00 | 54 | 1013.2 |
| 20260505011708 | 23 | 0 | 0.0 | 3.2 | 0.00 | 0.00 | 0.00 | 54 | 1013.2 |
| 20260505011608 | 22 | 0 | 0.0 | 3.2 | 0.00 | 0.00 | 0.00 | 54 | 1013.2 |
| 20260505011508 | 23 | 206 | 0.0 | 3.2 | 0.00 | 0.00 | 0.00 | 54 | 1013.2 |
| 20260505011411 | 22 | 0 | 0.0 | 3.2 | 0.00 | 0.00 | 0.00 | 54 | 1013.2 |
| 20260505011309 | 22 | 0 | 0.0 | 3.2 | 0.00 | 0.00 | 0.00 | 53 | 1013.3 |
| 20260505011208 | 22 | 0 | 0.0 | 3.2 | 0.00 | 0.00 | 0.00 | 53 | 1013.3 |
| 20260505011109 | 23 | 0 | 0.0 | 3.2 | 0.00 | 0.00 | 0.00 | 53 | 1013.3 |
| 20260505011008 | 22 | 0 | 0.0 | 3.2 | 0.00 | 0.00 | 0.00 | 53 | 1013.4 |
| 20260505010909 | 23 | 0 | 0.0 | 3.2 | 0.00 | 0.00 | 0.00 | 53 | 1013.4 |
| 20260505010808 | 23 | 0 | 0.0 | 3.2 | 0.00 | 0.00 | 0.00 | 53 | 1013.3 |
| 20260505010709 | 23 | 0 | 0.0 | 3.2 | 0.00 | 0.00 | 0.00 | 53 | 1013.3 |
| 20260505010608 | 23 | 0 | 0.0 | 3.2 | 0.00 | 0.00 | 0.00 | 54 | 1013.3 |
| 20260505010508 | 23 | 0 | 0.0 | 3.2 | 0.00 | 0.00 | 0.00 | 54 | 1013.3 |
| 20260505010412 | 23 | 0 | 0.0 | 3.2 | 0.00 | 0.00 | 0.00 | 54 | 1013.3 |
| 20260505010309 | 23 | 0 | 0.0 | 3.2 | 0.00 | 0.00 | 0.00 | 54 | 1013.2 |
| 20260505010208 | 22 | 0 | 0.0 | 3.2 | 0.00 | 0.00 | 0.00 | 54 | 1013.2 |
| 20260505010109 | 23 | 0 | 0.0 | 3.2 | 0.00 | 0.00 | 0.00 | 54 | 1013.2 |
| 20260505010009 | 23 | 226 | 0.0 | 3.2 | 0.00 | 0.00 | 0.00 | 54 | 1013.2 |
| 20260505005908 | 23 | 0 | 0.0 | 3.2 | 0.00 | 0.00 | 0.00 | 54 | 1013.2 |
| 20260505005809 | 23 | 0 | 0.0 | 3.2 | 0.00 | 0.00 | 0.00 | 54 | 1013.2 |
| 20260505005740 | 22 | 0 | 0.0 | 3.2 | 0.00 | 0.00 | 0.00 | 54 | 1013.1 |
| 20260505005608 | 22 | 0 | 0.0 | 3.2 | 0.00 | 0.00 | 0.00 | 54 | 1013.1 |
| 20260505005508 | 23 | 0 | 0.0 | 3.2 | 0.00 | 0.00 | 0.00 | 54 | 1013.1 |
| 20260505005412 | 22 | 336 | 0.0 | 3.2 | 0.00 | 0.00 | 0.00 | 54 | 1013.1 |
| 20260505005306 | 22 | 266 | 0.0 | 3.2 | 0.00 | 0.00 | 0.00 | 54 | 1013.2 |
| 20260505005206 | 22 | 0 | 0.0 | 3.2 | 0.00 | 0.00 | 0.00 | 54 | 1013.2 |
| 20260505005106 | 22 | 185 | 0.0 | 3.2 | 0.00 | 0.00 | 0.00 | 54 | 1013.2 |
| 20260505005005 | 22 | 0 | 0.0 | 1.6 | 0.00 | 0.00 | 0.00 | 54 | 1013.2 |
| 20260505004903 | 22 | 199 | 0.0 | 1.6 | 0.00 | 0.00 | 0.00 | 54 | 1013.3 |
| 20260505004803 | 22 | 0 | 0.0 | 1.6 | 0.00 | 0.00 | 0.00 | 54 | 1013.2 |
| 20260505004702 | 22 | 0 | 0.0 | 1.6 | 0.00 | 0.00 | 0.00 | 54 | 1013.2 |
| 20260505004603 | 22 | 0 | 0.0 | 1.6 | 0.00 | 0.00 | 0.00 | 53 | 1013.2 |
| 20260505004503 | 22 | 0 | 0.0 | 1.6 | 0.00 | 0.00 | 0.00 | 53 | 1013.2 |
| 20260505004403 | 22 | 261 | 0.0 | 1.6 | 0.00 | 0.00 | 0.00 | 53 | 1013.3 |
| 20260505004303 | 22 | 269 | 0.0 | 1.6 | 0.00 | 0.00 | 0.00 | 53 | 1013.3 |
| 20260505004202 | 23 | 0 | 0.0 | 1.6 | 0.00 | 0.00 | 0.00 | 53 | 1013.3 |
| 20260505004103 | 23 | 172 | 0.0 | 1.6 | 0.00 | 0.00 | 0.00 | 53 | 1013.4 |
| 20260505004002 | 23 | 179 | 0.0 | 1.6 | 0.00 | 0.00 | 0.00 | 53 | 1013.4 |
| 20260505003903 | 23 | 0 | 0.0 | 1.6 | 0.00 | 0.00 | 0.00 | 53 | 1013.4 |
| 20260505003802 | 23 | 203 | 0.0 | 3.2 | 0.00 | 0.00 | 0.00 | 53 | 1013.5 |
| 20260505003703 | 23 | 0 | 0.0 | 3.2 | 0.00 | 0.00 | 0.00 | 53 | 1013.5 |
| 20260505003602 | 23 | 0 | 0.0 | 3.2 | 0.00 | 0.00 | 0.00 | 53 | 1013.5 |
| 20260505003503 | 23 | 0 | 0.0 | 3.2 | 0.00 | 0.00 | 0.00 | 53 | 1013.6 |
| 20260505003403 | 23 | 0 | 0.0 | 3.2 | 0.00 | 0.00 | 0.00 | 53 | 1013.6 |
| 20260505003303 | 23 | 0 | 0.0 | 4.8 | 0.00 | 0.00 | 0.00 | 53 | 1013.6 |
| 20260505003203 | 23 | 0 | 0.0 | 4.8 | 0.00 | 0.00 | 0.00 | 53 | 1013.6 |
| 20260505003102 | 23 | 0 | 0.0 | 4.8 | 0.00 | 0.00 | 0.00 | 53 | 1013.6 |
| 20260505003003 | 23 | 0 | 0.0 | 4.8 | 0.00 | 0.00 | 0.00 | 54 | 1013.5 |
| 20260505002902 | 23 | 124 | 0.0 | 4.8 | 0.00 | 0.00 | 0.00 | 54 | 1013.5 |
| 20260505002803 | 23 | 273 | 0.0 | 4.8 | 0.00 | 0.00 | 0.00 | 54 | 1013.4 |
| 20260505002738 | 23 | 0 | 0.0 | 4.8 | 0.00 | 0.00 | 0.00 | 54 | 1013.4 |
| 20260505002604 | 23 | 233 | 0.0 | 4.8 | 0.00 | 0.00 | 0.00 | 54 | 1013.4 |
| 20260505002503 | 23 | 232 | 0.0 | 4.8 | 0.00 | 0.00 | 0.00 | 54 | 1013.3 |
| 20260505002403 | 23 | 0 | 0.0 | 4.8 | 0.00 | 0.00 | 0.00 | 54 | 1013.4 |
| 20260505002304 | 23 | 14 | 0.0 | 4.8 | 0.00 | 0.00 | 0.00 | 54 | 1013.4 |
| 20260505002203 | 23 | 0 | 0.0 | 3.2 | 0.00 | 0.00 | 0.00 | 54 | 1013.4 |
| 20260505002103 | 23 | 0 | 0.0 | 3.2 | 0.00 | 0.00 | 0.00 | 54 | 1013.4 |
| 20260505002003 | 23 | 193 | 0.0 | 6.4 | 0.00 | 0.00 | 0.00 | 53 | 1013.5 |
| 20260505001904 | 23 | 300 | 0.0 | 6.4 | 0.00 | 0.00 | 0.00 | 53 | 1013.5 |
| 20260505001803 | 23 | 30 | 0.0 | 6.4 | 0.00 | 0.00 | 0.00 | 53 | 1013.5 |
| 20260505001703 | 23 | 254 | 0.0 | 6.4 | 0.00 | 0.00 | 0.00 | 53 | 1013.5 |
| 20260505001603 | 23 | 0 | 0.0 | 6.4 | 0.00 | 0.00 | 0.00 | 53 | 1013.5 |
| 20260505001504 | 23 | 277 | 0.0 | 6.4 | 0.00 | 0.00 | 0.00 | 53 | 1013.5 |
| 20260505001403 | 23 | 0 | 0.0 | 6.4 | 0.00 | 0.00 | 0.00 | 53 | 1013.6 |
| 20260505001303 | 23 | 195 | 0.0 | 6.4 | 0.00 | 0.00 | 0.00 | 53 | 1013.6 |
| 20260505001203 | 23 | 266 | 0.0 | 6.4 | 0.00 | 0.00 | 0.00 | 53 | 1013.6 |
| 20260505001104 | 23 | 229 | 0.0 | 6.4 | 0.00 | 0.00 | 0.00 | 53 | 1013.6 |
| 20260505001003 | 23 | 294 | 0.0 | 6.4 | 0.00 | 0.00 | 0.00 | 53 | 1013.6 |
| 20260505000903 | 23 | 218 | 0.0 | 3.2 | 0.00 | 0.00 | 0.00 | 53 | 1013.7 |
| 20260505000804 | 23 | 327 | 0.0 | 3.2 | 0.00 | 0.00 | 0.00 | 53 | 1013.6 |
| 20260505000700 | 23 | 272 | 0.0 | 3.2 | 0.00 | 0.00 | 0.00 | 53 | 1013.6 |
| 20260505000600 | 23 | 0 | 0.0 | 3.2 | 0.00 | 0.00 | 0.00 | 53 | 1013.6 |
| 20260505000500 | 23 | 161 | 0.0 | 3.2 | 0.00 | 0.00 | 0.00 | 53 | 1013.6 |
| 20260505000358 | 23 | 177 | 0.0 | 3.2 | 0.00 | 0.00 | 0.00 | 54 | 1013.6 |
| 20260505000257 | 23 | 0 | 0.0 | 3.2 | 0.00 | 0.00 | 0.00 | 54 | 1013.7 |
| 20260505000235 | 23 | 77 | 0.0 | 3.2 | 0.00 | 0.00 | 0.00 | 54 | 1013.7 |
| 20260505000058 | 23 | 0 | 0.0 | 3.2 | 0.00 | 0.00 | 0.00 | 54 | 1013.7 |
| 20260504235957 | 23 | 0 | 0.0 | 3.2 | 0.00 | 0.00 | 0.00 | 54 | 1013.7 |
| 20260504235854 | 23 | 41 | 0.0 | 3.2 | 0.00 | 0.00 | 0.00 | 54 | 1013.7 |
| 20260504235755 | 23 | 259 | 0.0 | 3.2 | 0.00 | 0.00 | 0.00 | 54 | 1013.7 |
| 20260504235652 | 23 | 235 | 0.0 | 3.2 | 0.00 | 0.00 | 0.00 | 54 | 1013.6 |
| 20260504235551 | 23 | 275 | 0.0 | 3.2 | 0.00 | 0.00 | 0.00 | 54 | 1013.6 |
| 20260504235452 | 23 | 0 | 0.0 | 3.2 | 0.00 | 0.00 | 0.00 | 54 | 1013.6 |
| 20260504235349 | 23 | 196 | 0.0 | 3.2 | 0.00 | 0.00 | 0.00 | 54 | 1013.5 |
| 20260504235249 | 23 | 158 | 0.0 | 3.2 | 0.00 | 0.00 | 0.00 | 53 | 1013.6 |
| 20260504235149 | 23 | 192 | 0.0 | 3.2 | 0.00 | 0.00 | 0.00 | 53 | 1013.5 |
| 20260504235049 | 23 | 0 | 0.0 | 3.2 | 0.00 | 0.00 | 0.00 | 53 | 1013.5 |
| 20260504234949 | 23 | 0 | 0.0 | 3.2 | 0.00 | 0.00 | 0.00 | 53 | 1013.6 |
| 20260504234849 | 23 | 0 | 0.0 | 3.2 | 0.00 | 0.00 | 0.00 | 53 | 1013.5 |
| 20260504234748 | 23 | 134 | 0.0 | 3.2 | 0.00 | 0.00 | 0.00 | 53 | 1013.6 |
| 20260504234646 | 23 | 192 | 0.0 | 4.8 | 0.00 | 0.00 | 0.00 | 53 | 1013.6 |
| 20260504234546 | 23 | 91 | 0.0 | 4.8 | 0.00 | 0.00 | 0.00 | 53 | 1013.6 |
| 20260504234446 | 23 | 10 | 0.0 | 4.8 | 0.00 | 0.00 | 0.00 | 53 | 1013.6 |
| 20260504234346 | 23 | 171 | 0.0 | 4.8 | 0.00 | 0.00 | 0.00 | 53 | 1013.6 |
| 20260504234246 | 23 | 0 | 0.0 | 4.8 | 0.00 | 0.00 | 0.00 | 53 | 1013.6 |
| 20260504234146 | 23 | 0 | 0.0 | 4.8 | 0.00 | 0.00 | 0.00 | 53 | 1013.6 |
| 20260504234046 | 23 | 0 | 0.0 | 4.8 | 0.00 | 0.00 | 0.00 | 53 | 1013.6 |
| 20260504233943 | 23 | 316 | 0.0 | 4.8 | 0.00 | 0.00 | 0.00 | 53 | 1013.6 |
| 20260504233840 | 23 | 44 | 0.0 | 4.8 | 0.00 | 0.00 | 0.00 | 53 | 1013.5 |
| 20260504233740 | 23 | 319 | 0.0 | 4.8 | 0.00 | 0.00 | 0.00 | 53 | 1013.6 |
| 20260504233732 | 23 | 355 | 0.0 | 1.6 | 0.00 | 0.00 | 0.00 | 53 | 1013.6 |
| 20260504233540 | 23 | 199 | 0.0 | 1.6 | 0.00 | 0.00 | 0.00 | 53 | 1013.6 |
| 20260504233440 | 23 | 214 | 0.0 | 1.6 | 0.00 | 0.00 | 0.00 | 53 | 1013.6 |
| 20260504233340 | 23 | 35 | 0.0 | 1.6 | 0.00 | 0.00 | 0.00 | 53 | 1013.6 |
| 20260504233239 | 23 | 0 | 0.0 | 3.2 | 0.00 | 0.00 | 0.00 | 53 | 1013.7 |
| 20260504233140 | 23 | 185 | 0.0 | 3.2 | 0.00 | 0.00 | 0.00 | 53 | 1013.6 |
| 20260504233040 | 23 | 0 | 0.0 | 3.2 | 0.00 | 0.00 | 0.00 | 53 | 1013.7 |
| 20260504232956 | 23 | 0 | 0.0 | 3.2 | 0.00 | 0.00 | 0.00 | 53 | 1013.7 |
| 20260504232840 | 23 | 0 | 0.0 | 4.8 | 0.00 | 0.00 | 0.00 | 53 | 1013.8 |
| 20260504232740 | 23 | 0 | 0.0 | 4.8 | 0.00 | 0.00 | 0.00 | 53 | 1013.8 |
| 20260504232732 | 23 | 0 | 1.6 | 4.8 | 0.00 | 0.00 | 0.00 | 53 | 1013.7 |
| 20260504232540 | 23 | 0 | 1.6 | 4.8 | 0.00 | 0.00 | 0.00 | 53 | 1013.8 |
| 20260504232439 | 23 | 0 | 1.6 | 4.8 | 0.00 | 0.00 | 0.00 | 53 | 1013.7 |
| 20260504232339 | 23 | 0 | 1.6 | 4.8 | 0.00 | 0.00 | 0.00 | 53 | 1013.7 |
| 20260504232240 | 23 | 252 | 1.6 | 4.8 | 0.00 | 0.00 | 0.00 | 53 | 1013.7 |
| 20260504232140 | 23 | 165 | 0.0 | 4.8 | 0.00 | 0.00 | 0.00 | 53 | 1013.8 |
| 20260504232040 | 23 | 70 | 0.0 | 4.8 | 0.00 | 0.00 | 0.00 | 54 | 1013.8 |
| 20260504231940 | 23 | 154 | 0.0 | 4.8 | 0.00 | 0.00 | 0.00 | 54 | 1013.8 |
| 20260504231840 | 23 | 260 | 0.0 | 4.8 | 0.00 | 0.00 | 0.00 | 54 | 1013.8 |
| 20260504231740 | 23 | 188 | 0.0 | 4.8 | 0.00 | 0.00 | 0.00 | 54 | 1013.8 |
| 20260504231640 | 23 | 217 | 0.0 | 4.8 | 0.00 | 0.00 | 0.00 | 54 | 1013.8 |
| 20260504231541 | 23 | 129 | 0.0 | 4.8 | 0.00 | 0.00 | 0.00 | 54 | 1013.8 |
| 20260504231439 | 23 | 247 | 0.0 | 4.8 | 0.00 | 0.00 | 0.00 | 54 | 1013.8 |
| 20260504231338 | 23 | 162 | 0.0 | 4.8 | 0.00 | 0.00 | 0.00 | 54 | 1013.8 |
| 20260504231239 | 23 | 123 | 0.0 | 4.8 | 0.00 | 0.00 | 0.00 | 54 | 1013.8 |
| 20260504231138 | 23 | 0 | 0.0 | 4.8 | 0.00 | 0.00 | 0.00 | 54 | 1013.8 |
| 20260504231039 | 23 | 135 | 0.0 | 4.8 | 0.00 | 0.00 | 0.00 | 55 | 1013.8 |
| 20260504230939 | 23 | 0 | 0.0 | 4.8 | 0.00 | 0.00 | 0.00 | 55 | 1013.8 |
| 20260504230838 | 23 | 284 | 0.0 | 4.8 | 0.00 | 0.00 | 0.00 | 55 | 1013.9 |
| 20260504230739 | 23 | 0 | 1.6 | 4.8 | 0.00 | 0.00 | 0.00 | 55 | 1013.9 |
| 20260504230638 | 24 | 186 | 1.6 | 4.8 | 0.00 | 0.00 | 0.00 | 55 | 1013.9 |
| 20260504230539 | 24 | 0 | 1.6 | 4.8 | 0.00 | 0.00 | 0.00 | 55 | 1013.9 |
| 20260504230439 | 24 | 198 | 1.6 | 4.8 | 0.00 | 0.00 | 0.00 | 56 | 1013.9 |
| 20260504230339 | 24 | 83 | 1.6 | 6.4 | 0.00 | 0.00 | 0.00 | 56 | 1013.8 |
| 20260504230239 | 24 | 0 | 1.6 | 6.4 | 0.00 | 0.00 | 0.00 | 56 | 1013.9 |
| 20260504230039 | 24 | 97 | 1.6 | 6.4 | 0.00 | 0.00 | 0.00 | 56 | 1013.9 |
| 20260504225939 | 24 | 0 | 1.6 | 6.4 | 0.00 | 0.00 | 0.00 | 56 | 1013.9 |
| 20260504225839 | 24 | 139 | 1.6 | 6.4 | 0.00 | 0.00 | 0.00 | 56 | 1013.9 |
| 20260504225739 | 24 | 328 | 1.6 | 6.4 | 0.00 | 0.00 | 0.00 | 56 | 1014.0 |
| 20260504225639 | 24 | 167 | 1.6 | 6.4 | 0.00 | 0.00 | 0.00 | 56 | 1014.0 |
| 20260504225539 | 24 | 0 | 1.6 | 6.4 | 0.00 | 0.00 | 0.00 | 55 | 1013.9 |
| 20260504225453 | 24 | 0 | 1.6 | 6.4 | 0.00 | 0.00 | 0.00 | 55 | 1013.9 |
| 20260504225339 | 24 | 121 | 1.6 | 6.4 | 0.00 | 0.00 | 0.00 | 55 | 1013.9 |
| 20260504225239 | 24 | 186 | 0.0 | 6.4 | 0.00 | 0.00 | 0.00 | 55 | 1013.9 |
| 20260504225230 | 24 | 0 | 0.0 | 6.4 | 0.00 | 0.00 | 0.00 | 55 | 1013.9 |
| 20260504225039 | 24 | 0 | 0.0 | 6.4 | 0.00 | 0.00 | 0.00 | 54 | 1013.9 |
| 20260504224939 | 24 | 0 | 1.6 | 6.4 | 0.00 | 0.00 | 0.00 | 54 | 1013.9 |
| 20260504224838 | 24 | 122 | 1.6 | 6.4 | 0.00 | 0.00 | 0.00 | 54 | 1014.0 |
| 20260504224737 | 24 | 64 | 1.6 | 6.4 | 0.00 | 0.00 | 0.00 | 54 | 1014.0 |
| 20260504224638 | 24 | 222 | 1.6 | 4.8 | 0.00 | 0.00 | 0.00 | 54 | 1014.0 |
| 20260504224537 | 24 | 302 | 1.6 | 4.8 | 0.00 | 0.00 | 0.00 | 54 | 1014.0 |
| 20260504224438 | 24 | 0 | 1.6 | 4.8 | 0.00 | 0.00 | 0.00 | 54 | 1014.0 |
| 20260504224338 | 24 | 0 | 1.6 | 4.8 | 0.00 | 0.00 | 0.00 | 54 | 1014.0 |
| 20260504224237 | 24 | 195 | 1.6 | 4.8 | 0.00 | 0.00 | 0.00 | 54 | 1014.0 |
| 20260504224136 | 24 | 34 | 1.6 | 4.8 | 0.00 | 0.00 | 0.00 | 54 | 1014.1 |
| 20260504224035 | 24 | 342 | 1.6 | 4.8 | 0.00 | 0.00 | 0.00 | 55 | 1014.0 |
| 20260504223935 | 24 | 146 | 1.6 | 4.8 | 0.00 | 0.00 | 0.00 | 55 | 1014.0 |
| 20260504223835 | 24 | 37 | 1.6 | 4.8 | 0.00 | 0.00 | 0.00 | 55 | 1013.9 |
| 20260504223735 | 24 | 38 | 1.6 | 4.8 | 0.00 | 0.00 | 0.00 | 55 | 1013.9 |
| 20260504223635 | 24 | 27 | 0.0 | 3.2 | 0.00 | 0.00 | 0.00 | 55 | 1014.0 |
| 20260504223535 | 24 | 248 | 1.6 | 3.2 | 0.00 | 0.00 | 0.00 | 55 | 1014.0 |
| 20260504223434 | 24 | 0 | 1.6 | 4.8 | 0.00 | 0.00 | 0.00 | 56 | 1014.1 |
| 20260504223331 | 24 | 268 | 1.6 | 4.8 | 0.00 | 0.00 | 0.00 | 56 | 1014.1 |
| 20260504223232 | 24 | 337 | 1.6 | 4.8 | 0.00 | 0.00 | 0.00 | 56 | 1014.2 |
| 20260504223131 | 24 | 38 | 1.6 | 4.8 | 0.00 | 0.00 | 0.00 | 56 | 1014.2 |
| 20260504223031 | 24 | 0 | 1.6 | 4.8 | 0.00 | 0.00 | 0.00 | 56 | 1014.2 |
| 20260504222929 | 24 | 26 | 1.6 | 4.8 | 0.00 | 0.00 | 0.00 | 56 | 1014.2 |
| 20260504222829 | 24 | 34 | 1.6 | 4.8 | 0.00 | 0.00 | 0.00 | 56 | 1014.2 |
| 20260504222728 | 24 | 6 | 1.6 | 4.8 | 0.00 | 0.00 | 0.00 | 56 | 1014.2 |
| 20260504222629 | 24 | 0 | 1.6 | 4.8 | 0.00 | 0.00 | 0.00 | 56 | 1014.2 |
| 20260504222529 | 24 | 51 | 1.6 | 4.8 | 0.00 | 0.00 | 0.00 | 56 | 1014.1 |
| 20260504222429 | 24 | 96 | 1.6 | 4.8 | 0.00 | 0.00 | 0.00 | 56 | 1014.1 |
| 20260504222329 | 24 | 106 | 1.6 | 4.8 | 0.00 | 0.00 | 0.00 | 56 | 1014.1 |
| 20260504222228 | 24 | 0 | 1.6 | 4.8 | 0.00 | 0.00 | 0.00 | 56 | 1014.1 |
| 20260504222129 | 24 | 0 | 1.6 | 3.2 | 0.00 | 0.00 | 0.00 | 56 | 1014.1 |
| 20260504222029 | 24 | 35 | 0.0 | 3.2 | 0.00 | 0.00 | 0.00 | 56 | 1014.2 |
| 20260504221929 | 24 | 123 | 0.0 | 3.2 | 0.00 | 0.00 | 0.00 | 56 | 1014.2 |
| 20260504221829 | 24 | 157 | 0.0 | 3.2 | 0.00 | 0.00 | 0.00 | 56 | 1014.1 |
| 20260504221729 | 24 | 202 | 0.0 | 3.2 | 0.00 | 0.00 | 0.00 | 56 | 1014.2 |
| 20260504221533 | 24 | 69 | 0.0 | 4.8 | 0.00 | 0.00 | 0.00 | 55 | 1014.2 |
| 20260504221343 | 24 | 215 | 0.0 | 4.8 | 0.00 | 0.00 | 0.00 | 55 | 1014.1 |
| 20260504221245 | 24 | 16 | 0.0 | 4.8 | 0.00 | 0.00 | 0.00 | 55 | 1014.1 |
| 20260504221029 | 24 | 0 | 0.0 | 4.8 | 0.00 | 0.00 | 0.00 | 55 | 1014.1 |
| 20260504220929 | 24 | 0 | 1.6 | 4.8 | 0.00 | 0.00 | 0.00 | 55 | 1014.1 |
| 20260504220829 | 24 | 0 | 1.6 | 4.8 | 0.00 | 0.00 | 0.00 | 55 | 1014.1 |
| 20260504220729 | 24 | 0 | 1.6 | 4.8 | 0.00 | 0.00 | 0.00 | 55 | 1014.1 |
| 20260504220630 | 24 | 52 | 1.6 | 4.8 | 0.00 | 0.00 | 0.00 | 55 | 1014.2 |
| 20260504220529 | 24 | 199 | 0.0 | 3.2 | 0.00 | 0.00 | 0.00 | 55 | 1014.3 |
| 20260504220429 | 24 | 219 | 1.6 | 8.0 | 0.00 | 0.00 | 0.00 | 55 | 1014.3 |
| 20260504220329 | 24 | 0 | 1.6 | 8.0 | 0.00 | 0.00 | 0.00 | 54 | 1014.4 |
| 20260504220229 | 24 | 0 | 1.6 | 8.0 | 0.00 | 0.00 | 0.00 | 55 | 1014.5 |
| 20260504220130 | 24 | 201 | 1.6 | 8.0 | 0.00 | 0.00 | 0.00 | 55 | 1014.5 |
| 20260504220030 | 24 | 121 | 1.6 | 8.0 | 0.00 | 0.00 | 0.00 | 55 | 1014.5 |
| 20260504215930 | 24 | 65 | 1.6 | 8.0 | 0.00 | 0.00 | 0.00 | 55 | 1014.5 |
| 20260504215829 | 25 | 16 | 1.6 | 8.0 | 0.00 | 0.00 | 0.00 | 55 | 1014.4 |
| 20260504215729 | 25 | 0 | 1.6 | 8.0 | 0.00 | 0.00 | 0.00 | 55 | 1014.4 |
| 20260504215630 | 25 | 28 | 1.6 | 8.0 | 0.00 | 0.00 | 0.00 | 55 | 1014.4 |
| 20260504215530 | 24 | 111 | 1.6 | 8.0 | 0.00 | 0.00 | 0.00 | 55 | 1014.4 |
| 20260504215429 | 25 | 156 | 0.0 | 3.2 | 0.00 | 0.00 | 0.00 | 56 | 1014.4 |
| 20260504215329 | 25 | 99 | 0.0 | 3.2 | 0.00 | 0.00 | 0.00 | 56 | 1014.4 |
| 20260504215230 | 25 | 0 | 0.0 | 3.2 | 0.00 | 0.00 | 0.00 | 56 | 1014.4 |
| 20260504215130 | 25 | 204 | 0.0 | 3.2 | 0.00 | 0.00 | 0.00 | 56 | 1014.4 |
| 20260504215029 | 25 | 258 | 0.0 | 3.2 | 0.00 | 0.00 | 0.00 | 56 | 1014.4 |
| 20260504214930 | 25 | 197 | 0.0 | 6.4 | 0.00 | 0.00 | 0.00 | 56 | 1014.4 |
| 20260504214827 | 25 | 204 | 1.6 | 8.0 | 0.00 | 0.00 | 0.00 | 56 | 1014.4 |
| 20260504214726 | 25 | 220 | 1.6 | 8.0 | 0.00 | 0.00 | 0.00 | 57 | 1014.4 |
| 20260504214626 | 25 | 219 | 1.6 | 8.0 | 0.00 | 0.00 | 0.00 | 57 | 1014.3 |
| 20260504214526 | 25 | 0 | 1.6 | 8.0 | 0.00 | 0.00 | 0.00 | 57 | 1014.3 |
| 20260504214427 | 25 | 217 | 1.6 | 8.0 | 0.00 | 0.00 | 0.00 | 57 | 1014.3 |
| 20260504214326 | 25 | 276 | 1.6 | 8.0 | 0.00 | 0.00 | 0.00 | 57 | 1014.4 |
| 20260504214233 | 25 | 264 | 1.6 | 8.0 | 0.00 | 0.00 | 0.00 | 57 | 1014.4 |
| 20260504214226 | 25 | 0 | 1.6 | 8.0 | 0.00 | 0.00 | 0.00 | 57 | 1014.4 |
| 20260504214023 | 25 | 158 | 1.6 | 8.0 | 0.00 | 0.00 | 0.00 | 57 | 1014.4 |
| 20260504213924 | 25 | 277 | 1.6 | 8.0 | 0.00 | 0.00 | 0.00 | 57 | 1014.4 |
| 20260504213822 | 25 | 112 | 0.0 | 4.8 | 0.00 | 0.00 | 0.00 | 57 | 1014.4 |
| 20260504213722 | 25 | 207 | 0.0 | 4.8 | 0.00 | 0.00 | 0.00 | 57 | 1014.4 |
| 20260504213522 | 25 | 0 | 1.6 | 4.8 | 0.00 | 0.00 | 0.00 | 57 | 1014.4 |
| 20260504213422 | 25 | 203 | 1.6 | 4.8 | 0.00 | 0.00 | 0.00 | 57 | 1014.4 |
| 20260504213320 | 25 | 189 | 1.6 | 6.4 | 0.00 | 0.00 | 0.00 | 57 | 1014.4 |
| 20260504213221 | 25 | 92 | 1.6 | 6.4 | 0.00 | 0.00 | 0.00 | 57 | 1014.4 |
| 20260504213018 | 25 | 203 | 1.6 | 6.4 | 0.00 | 0.00 | 0.00 | 57 | 1014.4 |
| 20260504212918 | 25 | 0 | 1.6 | 6.4 | 0.00 | 0.00 | 0.00 | 57 | 1014.4 |
| 20260504212818 | 25 | 190 | 1.6 | 6.4 | 0.00 | 0.00 | 0.00 | 57 | 1014.4 |
| 20260504212715 | 25 | 102 | 1.6 | 6.4 | 0.00 | 0.00 | 0.00 | 57 | 1014.4 |
| 20260504212616 | 25 | 352 | 1.6 | 6.4 | 0.00 | 0.00 | 0.00 | 57 | 1014.4 |
| 20260504212515 | 24 | 35 | 1.6 | 6.4 | 0.00 | 0.00 | 0.00 | 57 | 1014.4 |
| 20260504212412 | 24 | 21 | 1.6 | 4.8 | 0.00 | 0.00 | 0.00 | 57 | 1014.3 |
| 20260504212312 | 24 | 131 | 1.6 | 4.8 | 0.00 | 0.00 | 0.00 | 57 | 1014.3 |
| 20260504212212 | 24 | 254 | 1.6 | 4.8 | 0.00 | 0.00 | 0.00 | 57 | 1014.4 |
| 20260504212112 | 24 | 0 | 1.6 | 4.8 | 0.00 | 0.00 | 0.00 | 57 | 1014.4 |
| 20260504212009 | 24 | 181 | 1.6 | 4.8 | 0.00 | 0.00 | 0.00 | 57 | 1014.5 |
| 20260504211909 | 24 | 18 | 1.6 | 4.8 | 0.00 | 0.00 | 0.00 | 57 | 1014.6 |
| 20260504211808 | 24 | 193 | 1.6 | 4.8 | 0.00 | 0.00 | 0.00 | 57 | 1014.7 |
| 20260504211708 | 24 | 218 | 1.6 | 4.8 | 0.00 | 0.00 | 0.00 | 57 | 1014.7 |
| 20260504211609 | 24 | 188 | 1.6 | 4.8 | 0.00 | 0.00 | 0.00 | 57 | 1014.7 |
| 20260504211509 | 25 | 187 | 1.6 | 4.8 | 0.00 | 0.00 | 0.00 | 57 | 1014.7 |
| 20260504211409 | 24 | 125 | 1.6 | 4.8 | 0.00 | 0.00 | 0.00 | 57 | 1014.6 |
| 20260504211309 | 25 | 138 | 1.6 | 4.8 | 0.00 | 0.00 | 0.00 | 57 | 1014.6 |
| 20260504211209 | 25 | 193 | 1.6 | 4.8 | 0.00 | 0.00 | 0.00 | 57 | 1014.6 |
| 20260504211109 | 24 | 68 | 1.6 | 4.8 | 0.00 | 0.00 | 0.00 | 57 | 1014.5 |
| 20260504211009 | 24 | 53 | 1.6 | 4.8 | 0.00 | 0.00 | 0.00 | 57 | 1014.5 |
| 20260504210909 | 25 | 31 | 1.6 | 8.0 | 0.00 | 0.00 | 0.00 | 57 | 1014.6 |
| 20260504210809 | 24 | 0 | 1.6 | 8.0 | 0.00 | 0.00 | 0.00 | 57 | 1014.6 |
| 20260504210723 | 25 | 0 | 1.6 | 8.0 | 0.00 | 0.00 | 0.00 | 57 | 1014.6 |
| 20260504210609 | 24 | 153 | 1.6 | 8.0 | 0.00 | 0.00 | 0.00 | 57 | 1014.7 |
| 20260504210509 | 24 | 256 | 1.6 | 8.0 | 0.00 | 0.00 | 0.00 | 57 | 1014.7 |
| 20260504210409 | 24 | 178 | 1.6 | 8.0 | 0.00 | 0.00 | 0.00 | 57 | 1014.7 |
| 20260504210308 | 25 | 90 | 1.6 | 8.0 | 0.00 | 0.00 | 0.00 | 57 | 1014.7 |
| 20260504210209 | 24 | 127 | 1.6 | 8.0 | 0.00 | 0.00 | 0.00 | 57 | 1014.7 |
| 20260504210109 | 24 | 222 | 1.6 | 8.0 | 0.00 | 0.00 | 0.00 | 57 | 1014.8 |
| 20260504210010 | 24 | 147 | 3.2 | 8.0 | 0.00 | 0.00 | 0.00 | 57 | 1014.8 |
| 20260504205909 | 24 | 135 | 3.2 | 8.0 | 0.00 | 0.00 | 0.00 | 57 | 1014.8 |
| 20260504205809 | 24 | 222 | 3.2 | 6.4 | 0.00 | 0.00 | 0.00 | 57 | 1014.8 |
| 20260504205723 | 24 | 0 | 3.2 | 6.4 | 0.00 | 0.00 | 0.00 | 57 | 1014.7 |
| 20260504205609 | 24 | 0 | 3.2 | 6.4 | 0.00 | 0.00 | 0.00 | 57 | 1014.7 |
| 20260504205510 | 24 | 132 | 3.2 | 6.4 | 0.00 | 0.00 | 0.00 | 57 | 1014.7 |
| 20260504205409 | 24 | 212 | 3.2 | 6.4 | 0.00 | 0.00 | 0.00 | 57 | 1014.6 |
| 20260504205310 | 24 | 121 | 3.2 | 6.4 | 0.00 | 0.00 | 0.00 | 57 | 1014.6 |
| 20260504205223 | 24 | 68 | 3.2 | 8.0 | 0.00 | 0.00 | 0.00 | 57 | 1014.6 |
| 20260504205110 | 24 | 147 | 3.2 | 8.0 | 0.00 | 0.00 | 0.00 | 57 | 1014.7 |
| 20260504205010 | 24 | 1 | 3.2 | 8.0 | 0.00 | 0.00 | 0.00 | 57 | 1014.7 |
| 20260504204909 | 24 | 59 | 3.2 | 8.0 | 0.00 | 0.00 | 0.00 | 57 | 1014.7 |
| 20260504204810 | 24 | 77 | 3.2 | 8.0 | 0.00 | 0.00 | 0.00 | 57 | 1014.7 |
| 20260504204709 | 24 | 123 | 1.6 | 8.0 | 0.00 | 0.00 | 0.00 | 57 | 1014.7 |
| 20260504204610 | 24 | 130 | 1.6 | 8.0 | 0.00 | 0.00 | 0.00 | 57 | 1014.6 |
| 20260504204509 | 24 | 267 | 1.6 | 8.0 | 0.00 | 0.00 | 0.00 | 57 | 1014.7 |
| 20260504204409 | 24 | 0 | 3.2 | 8.0 | 0.00 | 0.00 | 0.00 | 57 | 1014.7 |
| 20260504204307 | 24 | 36 | 3.2 | 8.0 | 0.00 | 0.00 | 0.00 | 57 | 1014.7 |
| 20260504204205 | 24 | 59 | 3.2 | 8.0 | 0.00 | 0.00 | 0.00 | 57 | 1014.8 |
| 20260504204104 | 24 | 9 | 1.6 | 8.0 | 0.00 | 0.00 | 0.00 | 57 | 1014.8 |
| 20260504204002 | 24 | 73 | 1.6 | 8.0 | 0.00 | 0.00 | 0.00 | 57 | 1014.8 |
| 20260504203901 | 24 | 11 | 1.6 | 8.0 | 0.00 | 0.00 | 0.00 | 57 | 1014.8 |
| 20260504203802 | 24 | 121 | 1.6 | 8.0 | 0.00 | 0.00 | 0.00 | 57 | 1014.9 |
| 20260504203659 | 24 | 130 | 1.6 | 8.0 | 0.00 | 0.00 | 0.00 | 57 | 1014.9 |
| 20260504203558 | 24 | 214 | 3.2 | 9.7 | 0.00 | 0.00 | 0.00 | 57 | 1014.9 |
| 20260504203459 | 24 | 22 | 3.2 | 9.7 | 0.00 | 0.00 | 0.00 | 57 | 1014.9 |
| 20260504203356 | 24 | 266 | 3.2 | 9.7 | 0.00 | 0.00 | 0.00 | 57 | 1014.9 |
| 20260504203255 | 24 | 161 | 3.2 | 9.7 | 0.00 | 0.00 | 0.00 | 57 | 1014.9 |
| 20260504203153 | 24 | 82 | 3.2 | 9.7 | 0.00 | 0.00 | 0.00 | 57 | 1015.0 |
| 20260504203052 | 24 | 66 | 3.2 | 9.7 | 0.00 | 0.00 | 0.00 | 57 | 1015.0 |
| 20260504202953 | 24 | 4 | 3.2 | 9.7 | 0.00 | 0.00 | 0.00 | 57 | 1015.1 |
| 20260504202852 | 24 | 148 | 3.2 | 9.7 | 0.00 | 0.00 | 0.00 | 57 | 1015.1 |
| 20260504202753 | 24 | 339 | 3.2 | 9.7 | 0.00 | 0.00 | 0.00 | 57 | 1015.1 |
| 20260504202652 | 24 | 358 | 3.2 | 9.7 | 0.00 | 0.00 | 0.00 | 57 | 1015.1 |
| 20260504202553 | 24 | 47 | 3.2 | 9.7 | 0.00 | 0.00 | 0.00 | 57 | 1015.1 |
| 20260504202453 | 24 | 63 | 1.6 | 8.0 | 0.00 | 0.00 | 0.00 | 57 | 1015.2 |
| 20260504202354 | 24 | 294 | 1.6 | 8.0 | 0.00 | 0.00 | 0.00 | 57 | 1015.2 |
| 20260504202252 | 24 | 49 | 1.6 | 8.0 | 0.00 | 0.00 | 0.00 | 57 | 1015.2 |
| 20260504202218 | 24 | 310 | 1.6 | 8.0 | 0.00 | 0.00 | 0.00 | 57 | 1015.2 |
| 20260504202053 | 24 | 49 | 1.6 | 8.0 | 0.00 | 0.00 | 0.00 | 57 | 1015.2 |
| 20260504201953 | 24 | 77 | 1.6 | 4.8 | 0.00 | 0.00 | 0.00 | 57 | 1015.1 |
| 20260504201853 | 24 | 155 | 1.6 | 4.8 | 0.00 | 0.00 | 0.00 | 57 | 1015.1 |
| 20260504201753 | 24 | 101 | 1.6 | 8.0 | 0.00 | 0.00 | 0.00 | 57 | 1015.1 |
| 20260504201653 | 24 | 140 | 1.6 | 8.0 | 0.00 | 0.00 | 0.00 | 57 | 1015.2 |
| 20260504201550 | 24 | 198 | 1.6 | 8.0 | 0.00 | 0.00 | 0.00 | 57 | 1015.2 |
| 20260504201450 | 24 | 225 | 1.6 | 8.0 | 0.00 | 0.00 | 0.00 | 57 | 1015.2 |
| 20260504201350 | 24 | 0 | 1.6 | 8.0 | 0.00 | 0.00 | 0.00 | 57 | 1015.2 |
| 20260504201247 | 24 | 145 | 1.6 | 8.0 | 0.00 | 0.00 | 0.00 | 57 | 1015.2 |
| 20260504201218 | 24 | 205 | 1.6 | 8.0 | 0.00 | 0.00 | 0.00 | 57 | 1015.2 |
| 20260504201047 | 24 | 171 | 1.6 | 8.0 | 0.00 | 0.00 | 0.00 | 57 | 1015.2 |
| 20260504200947 | 24 | 0 | 1.6 | 8.0 | 0.00 | 0.00 | 0.00 | 57 | 1015.3 |
| 20260504200844 | 24 | 124 | 1.6 | 8.0 | 0.00 | 0.00 | 0.00 | 57 | 1015.3 |
| 20260504200744 | 24 | 117 | 1.6 | 8.0 | 0.00 | 0.00 | 0.00 | 57 | 1015.3 |
| 20260504200645 | 24 | 144 | 1.6 | 6.4 | 0.00 | 0.00 | 0.00 | 57 | 1015.3 |
| 20260504200544 | 24 | 181 | 1.6 | 6.4 | 0.00 | 0.00 | 0.00 | 57 | 1015.3 |
| 20260504200445 | 24 | 234 | 1.6 | 6.4 | 0.00 | 0.00 | 0.00 | 57 | 1015.4 |
| 20260504200344 | 24 | 68 | 1.6 | 6.4 | 0.00 | 0.00 | 0.00 | 57 | 1015.5 |
| 20260504200244 | 24 | 63 | 1.6 | 4.8 | 0.00 | 0.00 | 0.00 | 57 | 1015.5 |
| 20260504200144 | 24 | 200 | 1.6 | 4.8 | 0.00 | 0.00 | 0.00 | 57 | 1015.5 |
| 20260504200044 | 24 | 253 | 1.6 | 4.8 | 0.00 | 0.00 | 0.00 | 57 | 1015.5 |
| 20260504195945 | 24 | 176 | 1.6 | 4.8 | 0.00 | 0.00 | 0.00 | 57 | 1015.6 |
| 20260504195844 | 24 | 0 | 1.6 | 4.8 | 0.00 | 0.00 | 0.00 | 57 | 1015.5 |
| 20260504195745 | 24 | 154 | 1.6 | 4.8 | 0.00 | 0.00 | 0.00 | 57 | 1015.5 |
| 20260504195644 | 24 | 158 | 1.6 | 4.8 | 0.00 | 0.00 | 0.00 | 57 | 1015.5 |
| 20260504195544 | 24 | 179 | 1.6 | 4.8 | 0.00 | 0.00 | 0.00 | 57 | 1015.5 |
| 20260504195445 | 24 | 236 | 1.6 | 4.8 | 0.00 | 0.00 | 0.00 | 57 | 1015.6 |
| 20260504195345 | 24 | 83 | 1.6 | 4.8 | 0.00 | 0.00 | 0.00 | 57 | 1015.6 |
| 20260504195244 | 24 | 239 | 1.6 | 3.2 | 0.00 | 0.00 | 0.00 | 57 | 1015.6 |
| 20260504195145 | 24 | 120 | 1.6 | 3.2 | 0.00 | 0.00 | 0.00 | 57 | 1015.6 |
| 20260504195044 | 24 | 0 | 1.6 | 3.2 | 0.00 | 0.00 | 0.00 | 57 | 1015.6 |
| 20260504194945 | 24 | 213 | 1.6 | 3.2 | 0.00 | 0.00 | 0.00 | 57 | 1015.7 |
| 20260504194844 | 24 | 187 | 1.6 | 3.2 | 0.00 | 0.00 | 0.00 | 57 | 1015.7 |
| 20260504194745 | 24 | 249 | 1.6 | 3.2 | 0.00 | 0.00 | 0.00 | 57 | 1015.7 |
| 20260504194645 | 24 | 223 | 1.6 | 3.2 | 0.00 | 0.00 | 0.00 | 57 | 1015.7 |
| 20260504194545 | 23 | 242 | 1.6 | 4.8 | 0.00 | 0.00 | 0.00 | 57 | 1015.7 |
| 20260504194444 | 24 | 0 | 1.6 | 4.8 | 0.00 | 0.00 | 0.00 | 57 | 1015.7 |
| 20260504194345 | 24 | 153 | 1.6 | 4.8 | 0.00 | 0.00 | 0.00 | 57 | 1015.8 |
| 20260504194244 | 24 | 209 | 1.6 | 4.8 | 0.00 | 0.00 | 0.00 | 57 | 1015.9 |
| 20260504194144 | 23 | 201 | 1.6 | 4.8 | 0.00 | 0.00 | 0.00 | 57 | 1015.9 |
| 20260504194044 | 24 | 178 | 1.6 | 4.8 | 0.00 | 0.00 | 0.00 | 57 | 1015.9 |
| 20260504193944 | 23 | 241 | 1.6 | 6.4 | 0.00 | 0.00 | 0.00 | 57 | 1015.9 |
| 20260504193844 | 24 | 248 | 1.6 | 6.4 | 0.00 | 0.00 | 0.00 | 57 | 1015.9 |
| 20260504193743 | 24 | 22 | 1.6 | 6.4 | 0.00 | 0.00 | 0.00 | 57 | 1015.9 |
| 20260504193715 | 24 | 206 | 1.6 | 8.0 | 0.00 | 0.00 | 0.00 | 56 | 1015.9 |
| 20260504193544 | 23 | 190 | 3.2 | 8.0 | 0.00 | 0.00 | 0.00 | 57 | 1015.9 |
| 20260504193444 | 23 | 213 | 3.2 | 8.0 | 0.00 | 0.00 | 0.00 | 57 | 1015.9 |
| 20260504193344 | 23 | 196 | 3.2 | 8.0 | 0.00 | 0.00 | 0.00 | 57 | 1015.9 |
| 20260504193245 | 24 | 329 | 3.2 | 8.0 | 0.00 | 0.00 | 0.00 | 57 | 1015.9 |
| 20260504193215 | 23 | 10 | 3.2 | 8.0 | 0.00 | 0.00 | 0.00 | 56 | 1016.0 |
| 20260504193044 | 23 | 8 | 3.2 | 8.0 | 0.00 | 0.00 | 0.00 | 56 | 1015.9 |
| 20260504192944 | 23 | 357 | 3.2 | 8.0 | 0.00 | 0.00 | 0.00 | 57 | 1015.9 |
| 20260504192845 | 23 | 72 | 3.2 | 8.0 | 0.00 | 0.00 | 0.00 | 56 | 1016.0 |
| 20260504192744 | 23 | 6 | 3.2 | 8.0 | 0.00 | 0.00 | 0.00 | 57 | 1016.0 |
| 20260504192644 | 24 | 74 | 1.6 | 6.4 | 0.00 | 0.00 | 0.00 | 56 | 1016.0 |
| 20260504192544 | 23 | 28 | 1.6 | 6.4 | 0.00 | 0.00 | 0.00 | 57 | 1016.0 |
| 20260504192444 | 23 | 26 | 1.6 | 6.4 | 0.00 | 0.00 | 0.00 | 56 | 1016.0 |
| 20260504192344 | 23 | 73 | 1.6 | 6.4 | 0.00 | 0.00 | 0.00 | 56 | 1016.0 |
| 20260504192245 | 23 | 104 | 1.6 | 4.8 | 0.00 | 0.00 | 0.00 | 57 | 1016.0 |
| 20260504192144 | 23 | 53 | 1.6 | 4.8 | 0.00 | 0.00 | 0.00 | 56 | 1016.0 |
| 20260504192044 | 23 | 57 | 1.6 | 4.8 | 0.00 | 0.00 | 0.00 | 56 | 1016.0 |
| 20260504191942 | 23 | 3 | 1.6 | 4.8 | 0.00 | 0.00 | 0.00 | 56 | 1016.0 |
| 20260504191842 | 23 | 331 | 1.6 | 4.8 | 0.00 | 0.00 | 0.00 | 56 | 1016.1 |
| 20260504191742 | 23 | 36 | 1.6 | 4.8 | 0.00 | 0.00 | 0.00 | 56 | 1016.1 |
| 20260504191713 | 23 | 0 | 1.6 | 6.4 | 0.00 | 0.00 | 0.00 | 56 | 1016.1 |
| 20260504191539 | 23 | 187 | 1.6 | 6.4 | 0.00 | 0.00 | 0.00 | 56 | 1016.2 |
| 20260504191439 | 23 | 151 | 1.6 | 6.4 | 0.00 | 0.00 | 0.00 | 56 | 1016.1 |
| 20260504191339 | 23 | 125 | 1.6 | 6.4 | 0.00 | 0.00 | 0.00 | 56 | 1016.1 |
| 20260504191239 | 23 | 169 | 1.6 | 6.4 | 0.00 | 0.00 | 0.00 | 56 | 1016.1 |
| 20260504191139 | 23 | 0 | 1.6 | 6.4 | 0.00 | 0.00 | 0.00 | 56 | 1016.1 |
| 20260504191038 | 23 | 0 | 1.6 | 6.4 | 0.00 | 0.00 | 0.00 | 56 | 1016.1 |
| 20260504190937 | 23 | 168 | 1.6 | 6.4 | 0.00 | 0.00 | 0.00 | 56 | 1016.1 |
| 20260504190836 | 23 | 223 | 3.2 | 6.4 | 0.00 | 0.00 | 0.00 | 56 | 1016.1 |
| 20260504190733 | 23 | 85 | 3.2 | 6.4 | 0.00 | 0.00 | 0.00 | 56 | 1016.1 |
| 20260504190634 | 23 | 90 | 1.6 | 6.4 | 0.00 | 0.00 | 0.00 | 56 | 1016.2 |
| 20260504190533 | 23 | 14 | 1.6 | 6.4 | 0.00 | 0.00 | 0.00 | 56 | 1016.2 |
| 20260504190433 | 23 | 0 | 1.6 | 6.4 | 0.00 | 0.00 | 0.00 | 56 | 1016.3 |
| 20260504190331 | 23 | 2 | 3.2 | 6.4 | 0.00 | 0.00 | 0.00 | 56 | 1016.3 |
| 20260504190230 | 23 | 191 | 3.2 | 6.4 | 0.00 | 0.00 | 0.00 | 56 | 1016.3 |
| 20260504190131 | 23 | 140 | 3.2 | 6.4 | 0.00 | 0.00 | 0.00 | 56 | 1016.3 |
| 20260504190030 | 23 | 127 | 1.6 | 6.4 | 0.00 | 0.00 | 0.00 | 56 | 1016.2 |
| 20260504185931 | 23 | 134 | 1.6 | 6.4 | 0.00 | 0.00 | 0.00 | 56 | 1016.2 |
| 20260504185830 | 23 | 70 | 1.6 | 6.4 | 0.00 | 0.00 | 0.00 | 56 | 1016.1 |
| 20260504185730 | 23 | 205 | 1.6 | 6.4 | 0.00 | 0.00 | 0.00 | 56 | 1016.1 |
| 20260504185630 | 23 | 5 | 1.6 | 6.4 | 0.00 | 0.00 | 0.00 | 56 | 1016.1 |
| 20260504185530 | 23 | 0 | 1.6 | 6.4 | 0.00 | 0.00 | 0.00 | 56 | 1016.2 |
| 20260504185430 | 23 | 77 | 1.6 | 8.0 | 0.00 | 0.00 | 0.00 | 56 | 1016.2 |
| 20260504185330 | 23 | 95 | 1.6 | 9.7 | 0.00 | 0.00 | 0.00 | 56 | 1016.2 |
| 20260504185230 | 23 | 275 | 3.2 | 9.7 | 0.00 | 0.00 | 0.00 | 56 | 1016.2 |
| 20260504185130 | 23 | 234 | 3.2 | 9.7 | 0.00 | 0.00 | 0.00 | 56 | 1016.2 |
| 20260504185030 | 23 | 265 | 3.2 | 9.7 | 0.00 | 0.00 | 0.00 | 56 | 1016.2 |
| 20260504184931 | 23 | 217 | 3.2 | 9.7 | 0.00 | 0.00 | 0.00 | 56 | 1016.3 |
| 20260504184830 | 23 | 12 | 3.2 | 9.7 | 0.00 | 0.00 | 0.00 | 56 | 1016.4 |
| 20260504184731 | 23 | 83 | 3.2 | 9.7 | 0.00 | 0.00 | 0.00 | 56 | 1016.4 |
| 20260504184710 | 23 | 85 | 3.2 | 9.7 | 0.00 | 0.00 | 0.00 | 56 | 1016.4 |
| 20260504184530 | 23 | 103 | 3.2 | 9.7 | 0.00 | 0.00 | 0.00 | 56 | 1016.4 |
| 20260504184431 | 23 | 134 | 3.2 | 9.7 | 0.00 | 0.00 | 0.00 | 56 | 1016.4 |
| 20260504184331 | 23 | 68 | 3.2 | 9.7 | 0.00 | 0.00 | 0.00 | 56 | 1016.3 |
| 20260504184231 | 23 | 78 | 3.2 | 9.7 | 0.00 | 0.00 | 0.00 | 56 | 1016.3 |
| 20260504184130 | 23 | 38 | 3.2 | 9.7 | 0.00 | 0.00 | 0.00 | 56 | 1016.4 |
| 20260504184030 | 23 | 0 | 3.2 | 9.7 | 0.00 | 0.00 | 0.00 | 56 | 1016.4 |
| 20260504183931 | 23 | 232 | 1.6 | 9.7 | 0.00 | 0.00 | 0.00 | 56 | 1016.4 |
| 20260504183843 | 23 | 273 | 1.6 | 9.7 | 0.00 | 0.00 | 0.00 | 56 | 1016.4 |
| 20260504183744 | 23 | 185 | 1.6 | 9.7 | 0.00 | 0.00 | 0.00 | 56 | 1016.4 |
| 20260504183644 | 23 | 41 | 1.6 | 9.7 | 0.00 | 0.00 | 0.00 | 56 | 1016.4 |
| 20260504183531 | 23 | 149 | 1.6 | 6.4 | 0.00 | 0.00 | 0.00 | 56 | 1016.5 |
| 20260504183430 | 23 | 20 | 1.6 | 6.4 | 0.00 | 0.00 | 0.00 | 56 | 1016.5 |
| 20260504183331 | 23 | 358 | 1.6 | 6.4 | 0.00 | 0.00 | 0.00 | 56 | 1016.5 |
| 20260504183231 | 23 | 67 | 1.6 | 6.4 | 0.00 | 0.00 | 0.00 | 56 | 1016.5 |
| 20260504183130 | 23 | 280 | 1.6 | 6.4 | 0.00 | 0.00 | 0.00 | 56 | 1016.5 |
| 20260504183031 | 23 | 178 | 1.6 | 6.4 | 0.00 | 0.00 | 0.00 | 56 | 1016.6 |
| 20260504182930 | 23 | 292 | 1.6 | 6.4 | 0.00 | 0.00 | 0.00 | 56 | 1016.6 |
| 20260504182831 | 23 | 24 | 1.6 | 6.4 | 0.00 | 0.00 | 0.00 | 56 | 1016.6 |
| 20260504182730 | 23 | 0 | 1.6 | 6.4 | 0.00 | 0.00 | 0.00 | 56 | 1016.6 |
| 20260504182631 | 23 | 0 | 1.6 | 6.4 | 0.00 | 0.00 | 0.00 | 56 | 1016.6 |
| 20260504182530 | 23 | 0 | 1.6 | 6.4 | 0.00 | 0.00 | 0.00 | 56 | 1016.7 |
| 20260504182430 | 23 | 260 | 1.6 | 6.4 | 0.00 | 0.00 | 0.00 | 56 | 1016.8 |
| 20260504182331 | 23 | 163 | 1.6 | 4.8 | 0.00 | 0.00 | 0.00 | 56 | 1016.8 |
| 20260504182231 | 23 | 293 | 1.6 | 4.8 | 0.00 | 0.00 | 0.00 | 56 | 1016.8 |
| 20260504182130 | 23 | 186 | 1.6 | 4.8 | 0.00 | 0.00 | 0.00 | 56 | 1016.7 |
| 20260504182031 | 23 | 224 | 1.6 | 4.8 | 0.00 | 0.00 | 0.00 | 56 | 1016.8 |
| 20260504181931 | 23 | 148 | 1.6 | 4.8 | 0.00 | 0.00 | 0.00 | 56 | 1016.7 |
| 20260504181831 | 23 | 219 | 1.6 | 4.8 | 0.00 | 0.00 | 0.00 | 56 | 1016.8 |
| 20260504181728 | 23 | 204 | 1.6 | 4.8 | 0.00 | 0.00 | 0.00 | 56 | 1016.8 |
| 20260504181706 | 23 | 183 | 1.6 | 4.8 | 0.00 | 0.00 | 0.00 | 56 | 1016.9 |
| 20260504181527 | 23 | 295 | 1.6 | 4.8 | 0.00 | 0.00 | 0.00 | 56 | 1016.9 |
| 20260504181441 | 23 | 270 | 1.6 | 4.8 | 0.00 | 0.00 | 0.00 | 56 | 1016.9 |
| 20260504181326 | 23 | 25 | 1.6 | 4.8 | 0.00 | 0.00 | 0.00 | 56 | 1016.9 |
| 20260504181226 | 23 | 239 | 1.6 | 4.8 | 0.00 | 0.00 | 0.00 | 56 | 1017.0 |
| 20260504181210 | 23 | 52 | 1.6 | 4.8 | 0.00 | 0.00 | 0.00 | 56 | 1016.9 |
| 20260504181027 | 23 | 206 | 1.6 | 4.8 | 0.00 | 0.00 | 0.00 | 56 | 1016.9 |
| 20260504180925 | 23 | 247 | 1.6 | 4.8 | 0.00 | 0.00 | 0.00 | 56 | 1016.9 |
| 20260504180825 | 23 | 224 | 1.6 | 8.0 | 0.00 | 0.00 | 0.00 | 56 | 1016.9 |
| 20260504180725 | 23 | 182 | 1.6 | 8.0 | 0.00 | 0.00 | 0.00 | 56 | 1016.9 |
| 20260504180625 | 23 | 191 | 1.6 | 8.0 | 0.00 | 0.00 | 0.00 | 56 | 1016.9 |
| 20260504180525 | 23 | 183 | 1.6 | 8.0 | 0.00 | 0.00 | 0.00 | 56 | 1016.9 |
| 20260504180424 | 23 | 0 | 1.6 | 8.0 | 0.00 | 0.00 | 0.00 | 56 | 1017.0 |
| 20260504180327 | 23 | 152 | 1.6 | 8.0 | 0.00 | 0.00 | 0.00 | 56 | 1017.0 |
| 20260504180225 | 23 | 202 | 1.6 | 9.7 | 0.00 | 0.00 | 0.00 | 56 | 1017.0 |
| 20260504180204 | 23 | 74 | 1.6 | 9.7 | 0.00 | 0.00 | 0.00 | 56 | 1017.1 |
| 20260504180025 | 23 | 239 | 3.2 | 9.7 | 0.00 | 0.00 | 0.00 | 56 | 1017.1 |
| 20260504175925 | 23 | 215 | 1.6 | 9.7 | 0.00 | 0.00 | 0.00 | 56 | 1017.0 |
| 20260504175825 | 23 | 36 | 1.6 | 9.7 | 0.00 | 0.00 | 0.00 | 56 | 1017.1 |
| 20260504175724 | 23 | 120 | 1.6 | 9.7 | 0.00 | 0.00 | 0.00 | 56 | 1017.1 |
| 20260504175625 | 23 | 201 | 1.6 | 9.7 | 0.00 | 0.00 | 0.00 | 56 | 1017.1 |
| 20260504175524 | 23 | 222 | 1.6 | 9.7 | 0.00 | 0.00 | 0.00 | 56 | 1017.1 |
| 20260504175425 | 23 | 22 | 1.6 | 9.7 | 0.00 | 0.00 | 0.00 | 56 | 1017.1 |
| 20260504175326 | 23 | 207 | 1.6 | 9.7 | 0.00 | 0.00 | 0.00 | 56 | 1017.1 |
| 20260504175225 | 23 | 245 | 1.6 | 4.8 | 0.00 | 0.00 | 0.00 | 56 | 1017.0 |
| 20260504175125 | 23 | 182 | 1.6 | 4.8 | 0.00 | 0.00 | 0.00 | 56 | 1017.1 |
| 20260504175025 | 23 | 189 | 1.6 | 4.8 | 0.00 | 0.00 | 0.00 | 56 | 1017.1 |
| 20260504174925 | 23 | 159 | 1.6 | 4.8 | 0.00 | 0.00 | 0.00 | 56 | 1017.0 |
| 20260504174825 | 23 | 96 | 1.6 | 4.8 | 0.00 | 0.00 | 0.00 | 56 | 1017.0 |
| 20260504174725 | 23 | 173 | 1.6 | 6.4 | 0.00 | 0.00 | 0.00 | 56 | 1017.0 |
| 20260504174625 | 23 | 202 | 1.6 | 6.4 | 0.00 | 0.00 | 0.00 | 56 | 1017.0 |
| 20260504174524 | 23 | 279 | 1.6 | 6.4 | 0.00 | 0.00 | 0.00 | 56 | 1017.1 |
| 20260504174425 | 23 | 0 | 1.6 | 6.4 | 0.00 | 0.00 | 0.00 | 56 | 1017.0 |
| 20260504174325 | 23 | 135 | 1.6 | 6.4 | 0.00 | 0.00 | 0.00 | 56 | 1017.0 |
| 20260504174225 | 23 | 0 | 1.6 | 6.4 | 0.00 | 0.00 | 0.00 | 56 | 1017.0 |
| 20260504174125 | 23 | 154 | 1.6 | 6.4 | 0.00 | 0.00 | 0.00 | 56 | 1017.0 |
| 20260504174025 | 23 | 189 | 1.6 | 6.4 | 0.00 | 0.00 | 0.00 | 56 | 1017.0 |
| 20260504173926 | 23 | 189 | 1.6 | 6.4 | 0.00 | 0.00 | 0.00 | 56 | 1017.0 |
| 20260504173825 | 23 | 106 | 1.6 | 6.4 | 0.00 | 0.00 | 0.00 | 56 | 1017.0 |
| 20260504173726 | 23 | 222 | 1.6 | 4.8 | 0.00 | 0.00 | 0.00 | 56 | 1017.1 |
| 20260504173625 | 23 | 286 | 1.6 | 4.8 | 0.00 | 0.00 | 0.00 | 56 | 1017.0 |
| 20260504173525 | 23 | 106 | 1.6 | 4.8 | 0.00 | 0.00 | 0.00 | 56 | 1017.0 |
| 20260504173425 | 23 | 151 | 1.6 | 3.2 | 0.00 | 0.00 | 0.00 | 56 | 1017.0 |
| 20260504173325 | 23 | 102 | 1.6 | 6.4 | 0.00 | 0.00 | 0.00 | 55 | 1017.0 |
| 20260504173225 | 23 | 0 | 1.6 | 6.4 | 0.00 | 0.00 | 0.00 | 55 | 1017.2 |
| 20260504173125 | 23 | 189 | 1.6 | 6.4 | 0.00 | 0.00 | 0.00 | 56 | 1017.1 |
| 20260504173026 | 23 | 140 | 1.6 | 6.4 | 0.00 | 0.00 | 0.00 | 56 | 1017.1 |
| 20260504172926 | 23 | 225 | 1.6 | 6.4 | 0.00 | 0.00 | 0.00 | 55 | 1017.1 |
| 20260504172825 | 23 | 0 | 1.6 | 6.4 | 0.00 | 0.00 | 0.00 | 55 | 1017.1 |
| 20260504172726 | 23 | 85 | 1.6 | 6.4 | 0.00 | 0.00 | 0.00 | 55 | 1017.2 |
| 20260504172625 | 23 | 168 | 1.6 | 6.4 | 0.00 | 0.00 | 0.00 | 56 | 1017.2 |
| 20260504172526 | 23 | 207 | 1.6 | 6.4 | 0.00 | 0.00 | 0.00 | 55 | 1017.2 |
| 20260504172426 | 23 | 217 | 1.6 | 6.4 | 0.00 | 0.00 | 0.00 | 56 | 1017.2 |
| 20260504172325 | 23 | 91 | 1.6 | 4.8 | 0.00 | 0.00 | 0.00 | 55 | 1017.2 |
| 20260504172226 | 23 | 68 | 1.6 | 4.8 | 0.00 | 0.00 | 0.00 | 55 | 1017.2 |
| 20260504172126 | 23 | 173 | 1.6 | 6.4 | 0.00 | 0.00 | 0.00 | 56 | 1017.2 |
| 20260504172025 | 23 | 24 | 1.6 | 6.4 | 0.00 | 0.00 | 0.00 | 55 | 1017.2 |
| 20260504171926 | 23 | 133 | 1.6 | 6.4 | 0.00 | 0.00 | 0.00 | 55 | 1017.2 |
| 20260504171825 | 23 | 115 | 1.6 | 6.4 | 0.00 | 0.00 | 0.00 | 55 | 1017.2 |
| 20260504171726 | 23 | 55 | 1.6 | 6.4 | 0.00 | 0.00 | 0.00 | 56 | 1017.2 |
| 20260504171626 | 23 | 0 | 1.6 | 6.4 | 0.00 | 0.00 | 0.00 | 55 | 1017.1 |
| 20260504171525 | 23 | 245 | 1.6 | 6.4 | 0.00 | 0.00 | 0.00 | 55 | 1017.1 |
| 20260504171426 | 23 | 163 | 1.6 | 6.4 | 0.00 | 0.00 | 0.00 | 55 | 1017.1 |
| 20260504171325 | 23 | 58 | 1.6 | 6.4 | 0.00 | 0.00 | 0.00 | 55 | 1017.1 |
| 20260504171226 | 23 | 185 | 1.6 | 8.0 | 0.00 | 0.00 | 0.00 | 55 | 1017.0 |
| 20260504171125 | 23 | 230 | 1.6 | 8.0 | 0.00 | 0.00 | 0.00 | 55 | 1017.0 |
| 20260504171024 | 23 | 0 | 1.6 | 8.0 | 0.00 | 0.00 | 0.00 | 55 | 1017.0 |
| 20260504170924 | 23 | 170 | 3.2 | 11.3 | 0.00 | 0.00 | 0.00 | 55 | 1017.0 |
| 20260504170824 | 23 | 91 | 3.2 | 11.3 | 0.00 | 0.00 | 0.00 | 55 | 1017.0 |
| 20260504170725 | 23 | 118 | 3.2 | 11.3 | 0.00 | 0.00 | 0.00 | 55 | 1017.0 |
| 20260504170621 | 23 | 124 | 3.2 | 11.3 | 0.00 | 0.00 | 0.00 | 55 | 1017.0 |
| 20260504170522 | 23 | 102 | 3.2 | 11.3 | 0.00 | 0.00 | 0.00 | 55 | 1017.0 |
| 20260504170421 | 23 | 150 | 3.2 | 11.3 | 0.00 | 0.00 | 0.00 | 55 | 1016.9 |
| 20260504170321 | 23 | 43 | 3.2 | 11.3 | 0.00 | 0.00 | 0.00 | 55 | 1017.0 |
| 20260504170221 | 23 | 101 | 3.2 | 11.3 | 0.00 | 0.00 | 0.00 | 55 | 1017.0 |
| 20260504170121 | 23 | 91 | 3.2 | 11.3 | 0.00 | 0.00 | 0.00 | 55 | 1017.0 |
| 20260504160410 | 23 | 77 | 3.2 | 9.7 | 0.00 | 0.00 | 0.00 | 55 | 1017.7 |
| 20260504160310 | 23 | 43 | 3.2 | 9.7 | 0.00 | 0.00 | 0.00 | 55 | 1017.8 |
| 20260504160210 | 23 | 20 | 1.6 | 9.7 | 0.00 | 0.00 | 0.00 | 55 | 1017.7 |
| 20260504160110 | 23 | 175 | 1.6 | 6.4 | 0.00 | 0.00 | 0.00 | 55 | 1017.7 |
| 20260504151051 | 23 | 19 | 1.6 | 6.4 | 0.00 | 0.00 | 0.00 | 55 | 1017.9 |
| 20260504150951 | 23 | 37 | 1.6 | 6.4 | 0.00 | 0.00 | 0.00 | 55 | 1017.8 |
| 20260504150851 | 23 | 0 | 1.6 | 6.4 | 0.00 | 0.00 | 0.00 | 55 | 1017.8 |
| 20260504150750 | 23 | 57 | 1.6 | 6.4 | 0.00 | 0.00 | 0.00 | 55 | 1017.7 |
| 20260504150651 | 23 | 10 | 1.6 | 6.4 | 0.00 | 0.00 | 0.00 | 55 | 1017.8 |
| 20260504150551 | 23 | 42 | 1.6 | 4.8 | 0.00 | 0.00 | 0.00 | 55 | 1017.8 |
| 20260504150451 | 23 | 275 | 1.6 | 4.8 | 0.00 | 0.00 | 0.00 | 55 | 1017.9 |
| 20260504150350 | 23 | 303 | 1.6 | 4.8 | 0.00 | 0.00 | 0.00 | 55 | 1017.8 |
| 20260504150251 | 23 | 48 | 1.6 | 4.8 | 0.00 | 0.00 | 0.00 | 55 | 1017.9 |
| 20260504150151 | 23 | 213 | 1.6 | 4.8 | 0.00 | 0.00 | 0.00 | 55 | 1017.9 |
| 20260504141242 | 23 | 213 | 0.0 | 3.2 | 0.00 | 0.00 | 0.00 | 55 | 1018.0 |
| 20260504141150 | 22 | 207 | 0.0 | 3.2 | 0.00 | 0.00 | 0.00 | 55 | 1018.0 |
| 20260504141143 | 22 | 197 | 0.0 | 3.2 | 0.00 | 0.00 | 0.00 | 55 | 1017.9 |
| 20260504140942 | 22 | 39 | 0.0 | 3.2 | 0.00 | 0.00 | 0.00 | 55 | 1018.0 |
| 20260504140841 | 23 | 0 | 0.0 | 3.2 | 0.00 | 0.00 | 0.00 | 55 | 1018.0 |
| 20260504140742 | 23 | 0 | 0.0 | 3.2 | 0.00 | 0.00 | 0.00 | 55 | 1018.0 |
| 20260504140641 | 23 | 194 | 0.0 | 3.2 | 0.00 | 0.00 | 0.00 | 55 | 1018.0 |
| 20260504140543 | 23 | 104 | 0.0 | 3.2 | 0.00 | 0.00 | 0.00 | 55 | 1018.0 |
| 20260504140442 | 23 | 211 | 0.0 | 3.2 | 0.00 | 0.00 | 0.00 | 55 | 1018.0 |
| 20260504140341 | 23 | 0 | 0.0 | 1.6 | 0.00 | 0.00 | 0.00 | 55 | 1018.0 |